M I D A S
Marine Information and Data Acquisition System
Tripno 2197 of the Zeeleeuw from 2011-10-13 07:27:03 to 2011-10-13 12:12:58
Back to CruiseResearch ActivitiesStationsMapUnderway DataData graphs

EquipmentUnitsComment
TimeDGPSUTC
LatitudeDGPSDM.mWGS84
LongitudeDGPSDM.mWGS84
TemperatureSBE03/SBE38deg celciusITS90
ConductivitySBE21S/mITS90
SalinitySBE21 Practical Salinity Units
ChlorophylAChelsea fluorimeterg/lCalibrated in Aceton
Missing or incorrect values are displayed as -999
Sea surface data collected by the RV Zeeleeuw from 2011-10-13 07:23:24 to 2011-10-13 12:28:02
                                                                                    Next 1000 lines
Time Latitude Longitude Temperature Conductivity Salinity ChlorophylA
2011-10-13 07:23:34 51°13.636 2°56.012 19.7405 0.019681 0.108032 -3.020363
2011-10-13 07:23:39 51°13.637 2°56.007 19.787 0.019681 0.108037 -3.020363
2011-10-13 07:23:44 51°13.638 2°56.001 19.7904 0.019681 0.108042 -3.020363
2011-10-13 07:23:50 51°13.64 2°55.993 19.7981 0.019681 0.108044 -3.020363
2011-10-13 07:23:56 51°13.642 2°55.983 19.8093 0.019681 0.108049 -3.020363
2011-10-13 07:24:01 51°13.644 2°55.974 19.8177 0.019681 0.108049 -3.020363
2011-10-13 07:24:07 51°13.646 2°55.962 19.8274 0.019681 0.108051 -3.020363
2011-10-13 07:24:12 51°13.648 2°55.951 19.8484 0.019681 0.108054 -3.020363
2011-10-13 07:24:17 51°13.65 2°55.941 19.857 0.019681 0.108058 -3.020363
2011-10-13 07:24:22 51°13.653 2°55.93 19.8561 0.019681 0.108061 -3.020363
2011-10-13 07:24:27 51°13.655 2°55.92 19.8551 0.019681 0.108063 -3.020363
2011-10-13 07:24:32 51°13.657 2°55.911 19.8466 0.019681 0.108063 -3.020363
2011-10-13 07:24:37 51°13.659 2°55.901 19.8535 0.019681 0.108067 -3.020363
2011-10-13 07:24:42 51°13.661 2°55.892 19.8544 0.019681 0.10807 -3.020363
2011-10-13 07:24:47 51°13.663 2°55.883 19.8552 0.019681 0.108072 -3.020363
2011-10-13 07:24:52 51°13.665 2°55.874 19.8544 0.019681 0.108074 -3.020363
2011-10-13 07:24:57 51°13.667 2°55.865 19.8557 0.019681 0.108077 -3.020363
2011-10-13 07:25:02 51°13.67 2°55.856 19.8533 0.019681 0.108077 -3.020363
2011-10-13 07:25:07 51°13.672 2°55.848 19.8614 0.019681 0.108079 -3.020363
2011-10-13 07:25:12 51°13.674 2°55.84 19.8537 0.019681 0.108082 -3.020363
2011-10-13 07:25:17 51°13.676 2°55.832 19.8604 0.019681 0.108084 -3.020363
2011-10-13 07:25:22 51°13.678 2°55.824 19.8552 0.019681 0.108086 -3.020363
2011-10-13 07:25:27 51°13.68 2°55.816 19.8628 0.019681 0.108089 -3.020363
2011-10-13 07:25:32 51°13.682 2°55.809 19.8587 0.019681 0.108089 -3.020363
2011-10-13 07:25:37 51°13.683 2°55.802 19.857 0.019681 0.108091 -3.020363
2011-10-13 07:25:42 51°13.685 2°55.795 19.8551 0.019681 0.108093 -3.020363
2011-10-13 07:25:47 51°13.687 2°55.789 19.8498 0.019681 0.108094 -3.020363
2011-10-13 07:25:52 51°13.689 2°55.782 19.8407 0.019681 0.108096 -3.020363
2011-10-13 07:25:57 51°13.69 2°55.776 19.846 0.019681 0.108098 -3.020363
2011-10-13 07:26:02 51°13.691 2°55.769 19.8468 0.019681 0.108098 -3.020363
2011-10-13 07:26:07 51°13.692 2°55.763 19.847 0.019681 0.1081 -3.020363
2011-10-13 07:26:12 51°13.694 2°55.757 19.8527 0.019681 0.108101 -3.020363
2011-10-13 07:26:17 51°13.695 2°55.752 19.855 0.019681 0.108103 -3.020363
2011-10-13 07:26:22 51°13.695 2°55.746 19.8718 0.019681 0.108105 -3.020363
2011-10-13 07:26:27 51°13.696 2°55.742 19.866 0.019681 0.108107 -3.020363
2011-10-13 07:26:32 51°13.697 2°55.74 19.8875 0.019681 0.108107 -3.020363
2011-10-13 07:26:37 51°13.697 2°55.74 19.8218 0.019681 0.10811 -3.020363
2011-10-13 07:26:42 51°13.698 2°55.74 19.8475 0.019681 0.10811 -3.020363
2011-10-13 07:26:47 51°13.698 2°55.741 19.8489 0.019681 0.108114 -3.020363
2011-10-13 07:26:52 51°13.699 2°55.743 19.8554 0.019681 0.108115 -3.020363
2011-10-13 07:26:58 51°13.7 2°55.745 19.8533 0.019681 0.108117 -3.020363
2011-10-13 07:27:01 51°13.7 2°55.746 19.8516 0.019681 0.108117 -3.020363
2011-10-13 07:27:06 51°13.701 2°55.748 19.8097 0.019681 0.108119 -3.020363
2011-10-13 07:27:12 51°13.702 2°55.751 19.7623 0.019681 0.108119 -3.020363
2011-10-13 07:27:17 51°13.703 2°55.752 19.7587 0.019681 0.108119 -3.020363
2011-10-13 07:27:22 51°13.703 2°55.752 19.808 0.019681 0.108121 -3.020363
2011-10-13 07:27:26 51°13.703 2°55.752 19.7795 0.019681 0.108122 -3.020363
2011-10-13 07:27:31 51°13.703 2°55.751 19.7659 0.019681 0.108122 -3.020363
2011-10-13 07:27:36 51°13.702 2°55.75 19.8052 0.019681 0.108122 -3.020363
2011-10-13 07:27:41 51°13.7 2°55.748 19.807 0.019681 0.108126 -3.020363
2011-10-13 07:27:46 51°13.698 2°55.746 19.8062 0.019681 0.108127 -3.020363
2011-10-13 07:27:52 51°13.696 2°55.743 19.827 0.019681 0.108129 -3.020363
2011-10-13 07:27:58 51°13.693 2°55.74 19.8252 0.019681 0.108131 -3.020363
2011-10-13 07:28:03 51°13.69 2°55.738 19.8309 0.019681 0.108131 -3.020363
2011-10-13 07:28:07 51°13.689 2°55.736 19.8561 0.019681 0.108133 -3.020363
2011-10-13 07:28:12 51°13.688 2°55.735 19.8643 0.019681 0.108136 -3.020363
2011-10-13 07:28:18 51°13.688 2°55.734 19.8716 0.019681 0.108136 -3.020363
2011-10-13 07:28:23 51°13.689 2°55.735 19.8718 0.019681 0.10814 -3.020363
2011-10-13 07:28:27 51°13.691 2°55.735 19.8709 0.019681 0.108141 -3.020363
2011-10-13 07:28:32 51°13.694 2°55.736 19.8706 0.019681 0.108141 -3.020363
2011-10-13 07:28:37 51°13.697 2°55.736 19.8702 0.019681 0.108143 -3.020363
2011-10-13 07:28:43 51°13.701 2°55.735 19.8663 0.019681 0.108145 -3.020363
2011-10-13 07:28:47 51°13.704 2°55.734 19.854 0.019681 0.108147 -3.020363
2011-10-13 07:28:53 51°13.709 2°55.732 19.8407 0.019681 0.108148 -3.020363
2011-10-13 07:28:58 51°13.713 2°55.729 19.7975 0.019681 0.108148 -3.020363
2011-10-13 07:29:02 51°13.716 2°55.727 19.7898 0.019681 0.108148 -3.020363
2011-10-13 07:29:07 51°13.72 2°55.724 19.7586 0.019681 0.10815 -3.020363
2011-10-13 07:29:12 51°13.725 2°55.721 19.7766 0.019681 0.108152 -3.020363
2011-10-13 07:29:17 51°13.729 2°55.718 19.7854 0.019681 0.108154 -3.020363
2011-10-13 07:29:22 51°13.734 2°55.714 19.7922 0.019681 0.108155 -3.020363
2011-10-13 07:29:27 51°13.74 2°55.71 19.7784 0.019681 0.108157 -3.020363
2011-10-13 07:29:31 51°13.744 2°55.707 19.7803 0.019681 0.108157 -3.020363
2011-10-13 07:29:36 51°13.75 2°55.703 19.7705 0.019681 0.108159 -3.020363
2011-10-13 07:29:41 51°13.756 2°55.698 19.774 0.019681 0.108159 -3.020363
2011-10-13 07:29:46 51°13.762 2°55.694 19.776 0.019681 0.108162 -3.020363
2011-10-13 07:29:51 51°13.768 2°55.688 19.7725 0.019681 0.108164 -3.020363
2011-10-13 07:29:55 51°13.773 2°55.684 19.7616 0.019681 0.108164 -3.020363
2011-10-13 07:30:00 51°13.78 2°55.679 19.7441 0.019681 0.108164 -3.020363
2011-10-13 07:30:05 51°13.787 2°55.673 19.7568 0.019681 0.108168 -3.020363
2011-10-13 07:30:10 51°13.794 2°55.668 19.747 0.019681 0.108169 -3.020363
2011-10-13 07:30:15 51°13.8 2°55.663 19.7474 0.019681 0.108171 -3.020363
2011-10-13 07:30:20 51°13.808 2°55.657 19.7415 0.019681 0.108174 -3.020363
2011-10-13 07:30:25 51°13.815 2°55.652 19.7403 0.019681 0.108176 -3.020363
2011-10-13 07:30:31 51°13.824 2°55.646 19.7392 0.019681 0.108176 -3.020363
2011-10-13 07:30:35 51°13.83 2°55.641 19.7417 0.019681 0.108178 -3.020363
2011-10-13 07:30:40 51°13.837 2°55.636 19.7443 0.019681 0.10818 -3.020363
2011-10-13 07:30:45 51°13.845 2°55.632 19.7458 0.019681 0.108183 -3.020363
2011-10-13 07:30:50 51°13.853 2°55.627 19.7518 0.019681 0.108185 -3.020363
2011-10-13 07:30:55 51°13.861 2°55.622 19.7523 0.019681 0.108188 -3.020363
2011-10-13 07:31:00 51°13.869 2°55.618 19.7565 0.019681 0.108188 -3.020363
2011-10-13 07:31:04 51°13.876 2°55.614 19.7494 0.019681 0.10819 -3.020363
2011-10-13 07:31:09 51°13.885 2°55.61 19.7507 0.019681 0.108192 -3.020363
2011-10-13 07:31:14 51°13.893 2°55.605 19.748 0.019681 0.108194 -3.020363
2011-10-13 07:31:19 51°13.902 2°55.601 19.7507 0.019681 0.108197 -3.020363
2011-10-13 07:31:24 51°13.911 2°55.597 19.7546 0.019681 0.108199 -3.020363
2011-10-13 07:31:29 51°13.92 2°55.593 19.7615 0.019681 0.108199 -3.020363
2011-10-13 07:31:34 51°13.929 2°55.588 19.7673 0.019681 0.108202 -3.020363
2011-10-13 07:31:39 51°13.938 2°55.584 19.775 0.019681 0.108206 -3.020363
2011-10-13 07:31:43 51°13.946 2°55.58 19.778 0.019681 0.108209 -3.020363
2011-10-13 07:31:49 51°13.957 2°55.574 19.7899 0.019681 0.108211 -3.020363
2011-10-13 07:31:53 51°13.965 2°55.571 19.7908 0.019681 0.108215 -3.020363
2011-10-13 07:31:59 51°13.977 2°55.564 19.7946 0.019681 0.108215 -3.020363
2011-10-13 07:32:03 51°13.984 2°55.56 19.8004 0.019681 0.108218 -3.020363
2011-10-13 07:32:09 51°13.996 2°55.553 19.801 0.019681 0.108222 -3.020363
2011-10-13 07:32:13 51°14.004 2°55.548 19.8004 0.019681 0.108225 -3.020363
2011-10-13 07:32:19 51°14.016 2°55.541 19.79 0.019681 0.108229 -3.020363
2011-10-13 07:32:23 51°14.024 2°55.536 19.8317 0.019681 0.108234 -3.020363
2011-10-13 07:32:28 51°14.033 2°55.529 19.8129 0.019681 0.108234 -3.020363
2011-10-13 07:32:34 51°14.044 2°55.52 19.7803 0.019681 0.108235 -3.020363
2011-10-13 07:32:39 51°14.054 2°55.512 19.7774 0.019681 0.108241 -3.020363
2011-10-13 07:32:43 51°14.062 2°55.506 19.7859 0.019681 0.108244 -3.020363
2011-10-13 07:32:49 51°14.073 2°55.497 19.7968 0.019681 0.108248 -3.020363
2011-10-13 07:32:54 51°14.083 2°55.488 19.7992 0.019681 0.108251 -3.020363
2011-10-13 07:32:59 51°14.092 2°55.48 19.776 0.019681 0.108251 -3.020363
2011-10-13 07:33:03 51°14.1 2°55.473 19.7606 0.019681 0.108255 -3.020363
2011-10-13 07:33:08 51°14.109 2°55.464 19.7896 0.019681 0.108258 -3.020363
2011-10-13 07:33:13 51°14.118 2°55.456 19.7698 0.019681 0.108262 -3.020363
2011-10-13 07:33:19 51°14.129 2°55.446 19.7883 0.019681 0.108267 -3.020363
2011-10-13 07:33:24 51°14.138 2°55.437 19.8268 0.019681 0.10827 -3.020363
2011-10-13 07:33:30 51°14.149 2°55.427 19.7837 0.019681 0.10827 -3.020363
2011-10-13 07:33:35 51°14.158 2°55.418 19.8097 0.019681 0.108274 -3.020363
2011-10-13 07:33:41 51°14.169 2°55.407 19.7826 0.019681 0.108279 -3.020363
2011-10-13 07:33:47 51°14.18 2°55.396 19.7793 0.019681 0.108283 -3.020363
2011-10-13 07:33:52 51°14.189 2°55.387 19.7928 0.019681 0.108288 -3.020363
2011-10-13 07:33:57 51°14.198 2°55.378 19.7872 0.019681 0.108293 -3.020363
2011-10-13 07:34:02 51°14.207 2°55.369 19.795 0.019681 0.108293 -3.020363
2011-10-13 07:34:07 51°14.216 2°55.36 19.8105 0.019681 0.108297 -3.020363
2011-10-13 07:34:12 51°14.225 2°55.351 19.7912 0.019681 0.1083 -3.020363
2011-10-13 07:34:17 51°14.234 2°55.342 19.7992 0.019681 0.108304 -3.020363
2011-10-13 07:34:22 51°14.243 2°55.333 19.8169 0.019681 0.108309 -3.020363
2011-10-13 07:34:28 51°14.253 2°55.322 19.8089 0.019681 0.108312 -3.020363
2011-10-13 07:34:32 51°14.261 2°55.314 19.7636 0.019681 0.108312 -3.020363
2011-10-13 07:34:37 51°14.27 2°55.305 19.7511 0.019681 0.108316 -3.020363
2011-10-13 07:34:42 51°14.28 2°55.296 19.7573 0.019681 0.108323 -3.020363
2011-10-13 07:34:47 51°14.289 2°55.286 19.7606 0.019681 0.108328 -3.020363
2011-10-13 07:34:52 51°14.299 2°55.277 19.8048 0.019681 0.108333 -3.020363
2011-10-13 07:34:57 51°14.309 2°55.266 19.7537 0.019681 0.108337 -3.020363
2011-10-13 07:35:02 51°14.319 2°55.256 19.7784 0.019681 0.108337 -3.020363
2011-10-13 07:35:07 51°14.329 2°55.246 19.7964 0.019681 0.108344 -3.020363
2011-10-13 07:35:12 51°14.339 2°55.235 19.7777 0.019681 0.108347 -3.020363
2011-10-13 07:35:17 51°14.349 2°55.225 19.7617 0.019681 0.108353 -3.020363
2011-10-13 07:35:22 51°14.36 2°55.213 19.765 0.019681 0.108358 -3.020363
2011-10-13 07:35:27 51°14.37 2°55.203 19.7574 0.019681 0.108363 -3.020363
2011-10-13 07:35:32 51°14.38 2°55.191 19.7245 0.019681 0.108363 -3.020363
2011-10-13 07:35:36 51°14.389 2°55.182 19.7221 0.019681 0.108367 -3.020363
2011-10-13 07:35:42 51°14.402 2°55.169 19.7801 0.019681 0.108368 -3.020363
2011-10-13 07:35:47 51°14.412 2°55.158 19.7817 0.019681 0.108379 -3.020363
2011-10-13 07:35:52 51°14.423 2°55.146 19.7514 0.019681 0.108379 -3.020363
2011-10-13 07:35:56 51°14.431 2°55.137 19.7639 0.019578 0.107827 -3.020363
2011-10-13 07:36:01 51°14.442 2°55.126 19.8022 0.019578 0.107827 -3.020363
2011-10-13 07:36:06 51°14.453 2°55.114 19.7413 0.019578 0.107834 -3.020363
2011-10-13 07:36:11 51°14.463 2°55.102 19.7258 0.019578 0.10784 -3.020363
2011-10-13 07:36:16 51°14.474 2°55.09 19.7488 0.019578 0.107846 -3.020363
2011-10-13 07:36:20 51°14.483 2°55.08 19.7156 0.019578 0.107852 -3.020363
2011-10-13 07:36:25 51°14.495 2°55.068 19.731 0.019578 0.107855 -3.020363
2011-10-13 07:36:31 51°14.509 2°55.053 19.7546 0.019578 0.107855 -3.020363
2011-10-13 07:36:35 51°14.519 2°55.042 19.6932 0.019578 0.107857 -3.020363
2011-10-13 07:36:40 51°14.531 2°55.028 19.7468 0.019578 0.107862 -3.020363
2011-10-13 07:36:44 51°14.541 2°55.017 19.7555 0.019578 0.107869 -3.020363
2011-10-13 07:36:50 51°14.555 2°54.998 19.7093 0.019578 0.107878 -3.020363
2011-10-13 07:36:55 51°14.567 2°54.981 19.6602 0.019578 0.107881 -3.020363
2011-10-13 07:37:00 51°14.579 2°54.964 19.7062 0.019578 0.107881 -3.020363
2011-10-13 07:37:04 51°14.59 2°54.951 19.7047 0.019578 0.107888 -3.020363
2011-10-13 07:37:09 51°14.602 2°54.934 19.6573 0.019578 0.107895 -3.020363
2011-10-13 07:37:14 51°14.615 2°54.917 19.639 0.019578 0.107897 -3.020363
2011-10-13 07:37:19 51°14.628 2°54.899 19.6889 0.019578 0.107906 -3.020363
2011-10-13 07:37:24 51°14.641 2°54.884 19.6539 0.019578 0.107913 -3.020363
2011-10-13 07:37:28 51°14.651 2°54.87 19.6638 0.019578 0.107913 -3.020363
2011-10-13 07:37:33 51°14.664 2°54.853 19.6569 0.019578 0.107914 -3.020363
2011-10-13 07:37:39 51°14.68 2°54.832 19.7086 0.019578 0.107921 -3.020363
2011-10-13 07:37:44 51°14.694 2°54.816 19.6254 0.019578 0.107928 -3.020363
2011-10-13 07:37:48 51°14.704 2°54.802 19.683 0.019578 0.107932 -3.020363
2011-10-13 07:37:53 51°14.717 2°54.786 19.6985 0.019578 0.107939 -3.020363
2011-10-13 07:37:59 51°14.733 2°54.766 19.657 0.019578 0.107939 -3.020363
2011-10-13 07:38:04 51°14.747 2°54.75 19.6509 0.019578 0.107944 -3.020363
2011-10-13 07:38:08 51°14.759 2°54.737 19.7016 0.019578 0.107949 -3.020363
2011-10-13 07:38:13 51°14.772 2°54.722 19.6381 0.019578 0.107956 -3.020363
2011-10-13 07:38:19 51°14.789 2°54.704 19.6649 0.019578 0.10796 -3.020363
2011-10-13 07:38:24 51°14.804 2°54.688 19.6953 0.019578 0.107967 -3.020363
2011-10-13 07:38:29 51°14.818 2°54.674 19.6957 0.019578 0.107967 -3.020363
2011-10-13 07:38:33 51°14.83 2°54.662 19.676 0.019578 0.10797 -3.020363
2011-10-13 07:38:38 51°14.844 2°54.648 19.6979 0.019578 0.107976 -3.020363
2011-10-13 07:38:44 51°14.861 2°54.631 19.712 0.019578 0.107983 -3.020363
2011-10-13 07:38:49 51°14.876 2°54.617 19.6891 0.019578 0.107984 -3.020363
2011-10-13 07:38:53 51°14.887 2°54.605 19.6829 0.019578 0.107991 -3.020363
2011-10-13 07:38:58 51°14.901 2°54.59 19.6243 0.019578 0.107991 -3.020363
2011-10-13 07:39:04 51°14.917 2°54.571 19.6093 0.019578 0.107995 -3.020363
2011-10-13 07:39:08 51°14.928 2°54.56 19.6505 0.019578 0.107998 -3.020363
2011-10-13 07:39:13 51°14.943 2°54.546 19.6827 0.019578 0.108003 -3.020363
2011-10-13 07:39:19 51°14.961 2°54.531 19.7025 0.019578 0.10801 -3.020363
2011-10-13 07:39:24 51°14.976 2°54.521 19.6821 0.019578 0.108016 -3.020363
2011-10-13 07:39:28 51°14.988 2°54.512 19.6966 0.019578 0.108016 -3.020363
2011-10-13 07:39:33 51°15.003 2°54.5 19.6897 0.019578 0.108021 -3.020363
2011-10-13 07:39:39 51°15.02 2°54.486 19.7043 0.019578 0.108028 -3.020363
2011-10-13 07:39:44 51°15.035 2°54.474 19.7133 0.019578 0.108031 -3.020363
2011-10-13 07:39:48 51°15.047 2°54.464 19.6766 0.019578 0.108038 -3.020363
2011-10-13 07:39:53 51°15.061 2°54.45 19.7146 0.019578 0.108044 -3.020363
2011-10-13 07:39:59 51°15.078 2°54.433 19.715 0.019578 0.108044 -3.020363
2011-10-13 07:40:04 51°15.092 2°54.419 19.6772 0.019578 0.108051 -3.020363
2011-10-13 07:40:08 51°15.103 2°54.408 19.6847 0.019578 0.108054 -3.020363
2011-10-13 07:40:13 51°15.117 2°54.394 19.6979 0.019578 0.108059 -3.020363
2011-10-13 07:40:18 51°15.131 2°54.381 19.6769 0.019578 0.108065 -3.020363
2011-10-13 07:40:24 51°15.148 2°54.367 19.6692 0.019578 0.108068 -3.020363
2011-10-13 07:40:28 51°15.16 2°54.358 19.665 0.019578 0.108068 -3.020363
2011-10-13 07:40:33 51°15.175 2°54.349 19.6491 0.019578 0.108073 -3.020363
2011-10-13 07:40:38 51°15.19 2°54.34 19.6851 0.019578 0.108077 -3.020363
2011-10-13 07:40:44 51°15.209 2°54.332 19.6891 0.019578 0.108082 -3.020363
2011-10-13 07:40:48 51°15.221 2°54.327 19.6504 0.019578 0.108087 -3.020363
2011-10-13 07:40:53 51°15.237 2°54.323 19.6866 0.019578 0.108093 -3.020363
2011-10-13 07:40:59 51°15.255 2°54.319 19.6425 0.019578 0.108093 -3.020363
2011-10-13 07:41:03 51°15.267 2°54.318 19.679 0.019578 0.108098 -3.020363
2011-10-13 07:41:08 51°15.283 2°54.317 19.6928 0.019578 0.108101 -3.020363
2011-10-13 07:41:13 51°15.298 2°54.317 19.6989 0.019578 0.108105 -3.020363
2011-10-13 07:41:19 51°15.317 2°54.318 19.6954 0.019578 0.10811 -3.020363
2011-10-13 07:41:23 51°15.329 2°54.32 19.6779 0.019578 0.108117 -3.020363
2011-10-13 07:41:28 51°15.344 2°54.322 19.6849 0.019578 0.108117 -3.020363
2011-10-13 07:41:33 51°15.36 2°54.324 19.6707 0.019578 0.108126 -3.020363
2011-10-13 07:41:38 51°15.375 2°54.326 19.663 0.019578 0.108131 -3.020363
2011-10-13 07:41:44 51°15.393 2°54.33 19.6587 0.019578 0.108137 -3.020363
2011-10-13 07:41:48 51°15.405 2°54.332 19.6902 0.019578 0.10814 -3.020363
2011-10-13 07:41:53 51°15.421 2°54.336 19.6878 0.019578 0.108144 -3.020363
2011-10-13 07:41:59 51°15.439 2°54.34 19.683 0.019578 0.108144 -3.020363
2011-10-13 07:42:04 51°15.454 2°54.344 19.6978 0.019578 0.108152 -3.020363
2011-10-13 07:42:08 51°15.467 2°54.346 19.6749 0.019578 0.108159 -3.020363
2011-10-13 07:42:13 51°15.482 2°54.349 19.7005 0.019578 0.108168 -3.020363
2011-10-13 07:42:19 51°15.501 2°54.353 19.6963 0.019578 0.108175 -3.020363
2011-10-13 07:42:24 51°15.516 2°54.354 19.7028 0.019578 0.108184 -3.020363
2011-10-13 07:42:28 51°15.529 2°54.354 19.7073 0.019578 0.108184 -3.020363
2011-10-13 07:42:33 51°15.544 2°54.353 19.686 0.019578 0.108189 -3.020363
2011-10-13 07:42:38 51°15.56 2°54.352 19.7078 0.019578 0.108196 -3.020363
2011-10-13 07:42:44 51°15.579 2°54.349 19.7013 0.019578 0.108202 -3.020363
2011-10-13 07:42:48 51°15.591 2°54.348 19.6943 0.019578 0.10821 -3.020363
2011-10-13 07:42:53 51°15.607 2°54.345 19.6978 0.019578 0.108216 -3.020363
2011-10-13 07:42:58 51°15.623 2°54.342 19.6974 0.019578 0.108216 -3.020363
2011-10-13 07:43:03 51°15.639 2°54.339 19.6845 0.019578 0.108223 -3.020363
2011-10-13 07:43:08 51°15.654 2°54.336 19.6964 0.019578 0.10823 -3.020363
2011-10-13 07:43:13 51°15.67 2°54.333 19.6609 0.019578 0.108235 -3.020363
2011-10-13 07:43:19 51°15.689 2°54.33 19.7002 0.019578 0.108242 -3.020363
2011-10-13 07:43:23 51°15.702 2°54.327 19.6754 0.019578 0.108249 -3.020363
2011-10-13 07:43:28 51°15.718 2°54.324 19.7115 0.019578 0.108249 -3.020363
2011-10-13 07:43:33 51°15.734 2°54.321 19.6775 0.019578 0.108254 -3.020363
2011-10-13 07:43:39 51°15.753 2°54.317 19.6936 0.019578 0.10826 -3.020363
2011-10-13 07:43:44 51°15.769 2°54.313 19.7037 0.019578 0.108267 -3.020363
2011-10-13 07:43:48 51°15.781 2°54.311 19.7059 0.019578 0.108272 -3.020363
2011-10-13 07:43:53 51°15.797 2°54.308 19.6914 0.019578 0.108277 -3.020363
2011-10-13 07:43:58 51°15.813 2°54.304 19.7095 0.019578 0.108277 -3.020363
2011-10-13 07:44:04 51°15.832 2°54.3 19.7102 0.019578 0.108284 -3.020363
2011-10-13 07:44:08 51°15.845 2°54.297 19.7115 0.019578 0.108291 -3.020363
2011-10-13 07:44:13 51°15.861 2°54.294 19.6905 0.019578 0.108296 -3.020363
2011-10-13 07:44:19 51°15.88 2°54.289 19.7115 0.019578 0.108305 -3.020363
2011-10-13 07:44:24 51°15.896 2°54.285 19.6896 0.019578 0.108311 -3.020363
2011-10-13 07:44:28 51°15.909 2°54.282 19.7071 0.019578 0.108311 -3.020363
2011-10-13 07:44:33 51°15.925 2°54.278 19.6759 0.019578 0.108318 -3.020363
2011-10-13 07:44:39 51°15.944 2°54.273 19.6939 0.019578 0.108323 -3.020363
2011-10-13 07:44:44 51°15.96 2°54.269 19.7126 0.019475 0.107772 -3.020363
2011-10-13 07:44:48 51°15.972 2°54.266 19.6826 0.019578 0.108337 -3.020363
2011-10-13 07:44:53 51°15.988 2°54.262 19.7055 0.019475 0.107783 -3.020363
2011-10-13 07:44:59 51°16.007 2°54.257 19.7041 0.019475 0.107783 -3.020363
2011-10-13 07:45:04 51°16.023 2°54.253 19.6943 0.019475 0.10779 -3.020363
2011-10-13 07:45:08 51°16.035 2°54.25 19.7118 0.019475 0.107795 -3.020363
2011-10-13 07:45:13 51°16.05 2°54.247 19.7291 0.019475 0.107802 -3.020363
2011-10-13 07:45:19 51°16.067 2°54.242 19.7286 0.019475 0.107809 -3.020363
2011-10-13 07:45:23 51°16.079 2°54.239 19.7281 0.019475 0.107814 -3.020363
2011-10-13 07:45:28 51°16.092 2°54.235 19.7289 0.019475 0.107814 -3.020363
2011-10-13 07:45:33 51°16.106 2°54.231 19.7133 0.019475 0.107821 -3.020363
2011-10-13 07:45:38 51°16.118 2°54.227 19.7075 0.019475 0.10783 -3.020363
2011-10-13 07:45:44 51°16.133 2°54.221 19.7207 0.019475 0.107837 -3.020363
2011-10-13 07:45:48 51°16.141 2°54.218 19.7281 0.019475 0.107844 -3.020363
2011-10-13 07:45:53 51°16.152 2°54.213 19.7314 0.019475 0.107851 -3.020363
2011-10-13 07:45:59 51°16.163 2°54.207 19.7157 0.019475 0.107851 -3.020363
2011-10-13 07:46:03 51°16.17 2°54.204 19.7396 0.019475 0.107856 -3.020363
2011-10-13 07:46:08 51°16.179 2°54.199 19.7387 0.019475 0.107863 -3.020363
2011-10-13 07:46:14 51°16.189 2°54.194 19.7486 0.019475 0.107868 -3.020363
2011-10-13 07:46:19 51°16.196 2°54.19 19.7401 0.019475 0.107876 -3.020363
2011-10-13 07:46:23 51°16.202 2°54.187 19.7323 0.019475 0.107879 -3.020363
2011-10-13 07:46:28 51°16.209 2°54.184 19.7318 0.019475 0.107879 -3.020363
2011-10-13 07:46:33 51°16.216 2°54.181 19.7484 0.019475 0.107884 -3.020363
2011-10-13 07:46:39 51°16.223 2°54.179 19.7404 0.019475 0.107891 -3.020363
2011-10-13 07:46:44 51°16.228 2°54.177 19.7268 0.019475 0.107895 -3.020363
2011-10-13 07:46:48 51°16.233 2°54.177 19.7386 0.019475 0.1079 -3.020363
2011-10-13 07:46:53 51°16.238 2°54.177 19.7423 0.019475 0.107904 -3.020363
2011-10-13 07:46:59 51°16.243 2°54.177 19.7403 0.019475 0.107904 -3.020363
2011-10-13 07:47:04 51°16.247 2°54.179 19.72 0.019475 0.107909 -3.020363
2011-10-13 07:47:08 51°16.249 2°54.18 19.7404 0.019475 0.107912 -3.020363
2011-10-13 07:47:13 51°16.253 2°54.181 19.7288 0.019475 0.107916 -3.020363
2011-10-13 07:47:19 51°16.256 2°54.184 19.7578 0.019475 0.107921 -3.020363
2011-10-13 07:47:24 51°16.259 2°54.187 19.7567 0.019475 0.107925 -3.020363
2011-10-13 07:47:28 51°16.261 2°54.189 19.7506 0.019475 0.107925 -3.020363
2011-10-13 07:47:33 51°16.263 2°54.192 19.7551 0.019475 0.107928 -3.020363
2011-10-13 07:47:38 51°16.264 2°54.195 19.7453 0.019475 0.107934 -3.020363
2011-10-13 07:47:44 51°16.266 2°54.199 19.7507 0.019475 0.107937 -3.020363
2011-10-13 07:47:48 51°16.266 2°54.202 19.7433 0.019475 0.107942 -3.020363
2011-10-13 07:47:53 51°16.267 2°54.206 19.7497 0.019475 0.107946 -3.020363
2011-10-13 07:47:59 51°16.267 2°54.211 19.6081 0.019475 0.107946 -3.020363
2011-10-13 07:48:04 51°16.267 2°54.215 19.7184 0.019475 0.107941 -3.020363
2011-10-13 07:48:08 51°16.266 2°54.219 19.8197 0.019475 0.107858 -3.020363
2011-10-13 07:48:13 51°16.265 2°54.223 19.8103 0.019475 0.107821 -3.020363
2011-10-13 07:48:19 51°16.264 2°54.228 19.7946 0.019475 0.107842 -3.020363
2011-10-13 07:48:24 51°16.263 2°54.232 19.7906 0.019475 0.107856 -3.020363
2011-10-13 07:48:28 51°16.262 2°54.234 19.7816 0.019475 0.107856 -3.020363
2011-10-13 07:48:33 51°16.26 2°54.236 19.7689 0.019475 0.107884 -3.020363
2011-10-13 07:48:39 51°16.259 2°54.238 19.7409 0.019475 0.107918 -3.020363
2011-10-13 07:48:44 51°16.257 2°54.238 19.7302 0.019475 0.107939 -3.020363
2011-10-13 07:48:48 51°16.257 2°54.238 19.7417 0.019475 0.107932 -3.020363
2011-10-13 07:48:53 51°16.255 2°54.237 19.763 0.019475 0.107928 -3.020363
2011-10-13 07:48:59 51°16.254 2°54.235 19.7485 0.019475 0.107928 -3.020363
2011-10-13 07:49:03 51°16.253 2°54.234 19.752 0.019475 0.107932 -3.020363
2011-10-13 07:49:08 51°16.252 2°54.232 19.7502 0.019475 0.107949 -3.020363
2011-10-13 07:49:13 51°16.25 2°54.23 19.7589 0.019475 0.107972 -3.020363
2011-10-13 07:49:19 51°16.249 2°54.227 19.7554 0.019475 0.10799 -3.020363
2011-10-13 07:49:24 51°16.248 2°54.225 19.7631 0.019475 0.108002 -3.020363
2011-10-13 07:49:28 51°16.247 2°54.224 19.7613 0.019475 0.108002 -3.020363
2011-10-13 07:49:33 51°16.245 2°54.221 19.7664 0.019475 0.108013 -3.020363
2011-10-13 07:49:38 51°16.244 2°54.219 19.7657 0.019475 0.108022 -3.020363
2011-10-13 07:49:44 51°16.242 2°54.217 19.769 0.019475 0.108027 -3.020363
2011-10-13 07:49:48 51°16.241 2°54.215 19.7693 0.019475 0.108034 -3.020363
2011-10-13 07:49:53 51°16.24 2°54.213 19.773 0.019475 0.108039 -3.020363
2011-10-13 07:49:58 51°16.239 2°54.21 19.7753 0.019475 0.108039 -3.020363
2011-10-13 07:50:04 51°16.237 2°54.207 19.777 0.019475 0.108044 -3.020363
2011-10-13 07:50:08 51°16.236 2°54.206 19.7759 0.019475 0.108048 -3.020363
2011-10-13 07:50:13 51°16.235 2°54.203 19.778 0.019475 0.108053 -3.020363
2011-10-13 07:50:19 51°16.233 2°54.2 19.7789 0.019475 0.108057 -3.020363
2011-10-13 07:50:24 51°16.232 2°54.198 19.782 0.019475 0.10806 -3.020363
2011-10-13 07:50:28 51°16.23 2°54.196 19.7841 0.019475 0.10806 -3.020363
2011-10-13 07:50:33 51°16.229 2°54.193 19.7848 0.019475 0.108062 -3.020363
2011-10-13 07:50:39 51°16.227 2°54.191 19.7882 0.019475 0.108066 -3.020363
2011-10-13 07:50:44 51°16.226 2°54.188 19.7894 0.019475 0.108067 -3.020363
2011-10-13 07:50:48 51°16.225 2°54.186 19.7899 0.019475 0.108071 -3.020363
2011-10-13 07:50:54 51°16.223 2°54.183 19.7918 0.019475 0.108074 -3.020363
2011-10-13 07:50:59 51°16.221 2°54.181 19.7946 0.019475 0.108074 -3.020363
2011-10-13 07:51:04 51°16.22 2°54.178 19.7958 0.019475 0.108076 -3.020363
2011-10-13 07:51:08 51°16.219 2°54.176 19.7976 0.019475 0.10808 -3.020363
2011-10-13 07:51:13 51°16.217 2°54.173 19.8024 0.019475 0.108083 -3.020363
2011-10-13 07:51:19 51°16.215 2°54.17 19.8012 0.019475 0.108087 -3.020363
2011-10-13 07:51:24 51°16.214 2°54.167 19.8024 0.019475 0.10809 -3.020363
2011-10-13 07:51:28 51°16.213 2°54.165 19.8051 0.019475 0.10809 -3.020363
2011-10-13 07:51:33 51°16.211 2°54.163 19.8051 0.019475 0.108092 -3.020363
2011-10-13 07:51:38 51°16.21 2°54.16 19.8074 0.019475 0.108096 -3.020363
2011-10-13 07:51:44 51°16.208 2°54.156 19.8109 0.019475 0.108101 -3.020363
2011-10-13 07:51:48 51°16.207 2°54.155 19.8118 0.019475 0.108103 -3.020363
2011-10-13 07:51:53 51°16.205 2°54.152 19.8162 0.019475 0.108106 -3.020363
2011-10-13 07:51:59 51°16.203 2°54.149 19.8148 0.019475 0.108106 -3.020363
2011-10-13 07:52:04 51°16.202 2°54.146 19.8152 0.019475 0.10811 -3.020363
2011-10-13 07:52:08 51°16.201 2°54.143 19.817 0.019475 0.108113 -3.020363
2011-10-13 07:52:13 51°16.199 2°54.141 19.8188 0.019372 0.107555 -3.020363
2011-10-13 07:52:19 51°16.197 2°54.138 19.8196 0.019475 0.10812 -3.020363
2011-10-13 07:52:24 51°16.196 2°54.135 19.8234 0.019372 0.10756 -3.020363
2011-10-13 07:52:28 51°16.195 2°54.133 19.8237 0.019372 0.10756 -3.020363
2011-10-13 07:52:33 51°16.193 2°54.13 19.8265 0.019372 0.107564 -3.020363
2011-10-13 07:52:39 51°16.191 2°54.126 19.8288 0.019372 0.107569 -3.020363
2011-10-13 07:52:43 51°16.19 2°54.125 19.8299 0.019372 0.107571 -3.020363
2011-10-13 07:52:48 51°16.189 2°54.122 19.8309 0.019372 0.107575 -3.020363
2011-10-13 07:52:54 51°16.187 2°54.118 19.8321 0.019372 0.107578 -3.020363
2011-10-13 07:52:59 51°16.186 2°54.116 19.8331 0.019372 0.107578 -3.020363
2011-10-13 07:53:03 51°16.185 2°54.114 19.8361 0.019372 0.107582 -3.020363
2011-10-13 07:53:08 51°16.183 2°54.111 19.8386 0.019372 0.107583 -3.020363
2011-10-13 07:53:13 51°16.182 2°54.108 19.844 0.019372 0.107589 -3.020363
2011-10-13 07:53:19 51°16.18 2°54.105 19.8423 0.019372 0.107592 -3.020363
2011-10-13 07:53:24 51°16.178 2°54.102 19.8436 0.019372 0.107594 -3.020363
2011-10-13 07:53:28 51°16.177 2°54.1 19.845 0.019372 0.107594 -3.020363
2011-10-13 07:53:33 51°16.176 2°54.098 19.8456 0.019372 0.107597 -3.020363
2011-10-13 07:53:39 51°16.174 2°54.094 19.8466 0.019372 0.107601 -3.020363
2011-10-13 07:53:44 51°16.173 2°54.092 19.8494 0.019372 0.107603 -3.020363
2011-10-13 07:53:48 51°16.171 2°54.089 19.8501 0.019372 0.107606 -3.020363
2011-10-13 07:53:53 51°16.17 2°54.087 19.8521 0.019372 0.107611 -3.020363
2011-10-13 07:53:59 51°16.168 2°54.083 19.8532 0.019372 0.107611 -3.020363
2011-10-13 07:54:04 51°16.167 2°54.081 19.8547 0.019372 0.107613 -3.020363
2011-10-13 07:54:08 51°16.165 2°54.078 19.8559 0.019372 0.107617 -3.020363
2011-10-13 07:54:13 51°16.164 2°54.076 19.8586 0.019372 0.10762 -3.020363
2011-10-13 07:54:19 51°16.162 2°54.072 19.8611 0.019372 0.107622 -3.020363
2011-10-13 07:54:24 51°16.161 2°54.07 19.8621 0.019372 0.107625 -3.020363
2011-10-13 07:54:28 51°16.159 2°54.067 19.8629 0.019372 0.107625 -3.020363
2011-10-13 07:54:33 51°16.158 2°54.065 19.8655 0.019372 0.107629 -3.020363
2011-10-13 07:54:38 51°16.156 2°54.062 19.8673 0.019372 0.107633 -3.020363
2011-10-13 07:54:44 51°16.155 2°54.059 19.8676 0.019372 0.107636 -3.020363
2011-10-13 07:54:48 51°16.153 2°54.057 19.8698 0.019372 0.107638 -3.020363
2011-10-13 07:54:53 51°16.152 2°54.054 19.872 0.019372 0.10764 -3.020363
2011-10-13 07:54:59 51°16.15 2°54.05 19.8737 0.019372 0.10764 -3.020363
2011-10-13 07:55:04 51°16.149 2°54.048 19.8753 0.019372 0.107645 -3.020363
2011-10-13 07:55:08 51°16.147 2°54.046 19.8766 0.019372 0.107647 -3.020363
2011-10-13 07:55:13 51°16.146 2°54.043 19.8777 0.019372 0.10765 -3.020363
2011-10-13 07:55:19 51°16.144 2°54.04 19.8806 0.019372 0.107652 -3.020363
2011-10-13 07:55:23 51°16.143 2°54.037 19.8827 0.019372 0.107654 -3.020363
2011-10-13 07:55:28 51°16.141 2°54.035 19.8843 0.019372 0.107654 -3.020363
2011-10-13 07:55:33 51°16.14 2°54.032 19.8842 0.019372 0.107657 -3.020363
2011-10-13 07:55:39 51°16.138 2°54.029 19.8864 0.019372 0.107659 -3.020363
2011-10-13 07:55:44 51°16.136 2°54.026 19.8868 0.019372 0.107662 -3.020363
2011-10-13 07:55:48 51°16.135 2°54.024 19.8889 0.019372 0.107664 -3.020363
2011-10-13 07:55:53 51°16.134 2°54.021 19.8888 0.019372 0.107666 -3.020363
2011-10-13 07:55:58 51°16.132 2°54.019 19.8928 0.019372 0.107666 -3.020363
2011-10-13 07:56:04 51°16.13 2°54.015 19.8929 0.019372 0.10767 -3.020363
2011-10-13 07:56:08 51°16.129 2°54.013 19.8949 0.019372 0.107673 -3.020363
2011-10-13 07:56:13 51°16.128 2°54.01 19.896 0.019372 0.107675 -3.020363
2011-10-13 07:56:18 51°16.126 2°54.008 19.899 0.019372 0.107677 -3.020363
2011-10-13 07:56:24 51°16.124 2°54.005 19.9009 0.019372 0.107678 -3.020363
2011-10-13 07:56:28 51°16.123 2°54.003 19.9027 0.019372 0.107678 -3.020363
2011-10-13 07:56:33 51°16.121 2°54 19.904 0.019372 0.10768 -3.020363
2011-10-13 07:56:38 51°16.12 2°53.998 19.9052 0.019372 0.107684 -3.020363
2011-10-13 07:56:44 51°16.118 2°53.994 19.9063 0.019372 0.107687 -3.020363
2011-10-13 07:56:48 51°16.116 2°53.992 19.9084 0.019372 0.107689 -3.020363
2011-10-13 07:56:53 51°16.115 2°53.99 19.9102 0.019372 0.107692 -3.020363
2011-10-13 07:56:59 51°16.113 2°53.987 19.9123 0.019372 0.107692 -3.020363
2011-10-13 07:57:04 51°16.112 2°53.984 19.9129 0.019372 0.107694 -3.020363
2011-10-13 07:57:08 51°16.11 2°53.982 19.9129 0.019372 0.107698 -3.020363
2011-10-13 07:57:13 51°16.109 2°53.979 19.9159 0.019372 0.107699 -3.020363
2011-10-13 07:57:19 51°16.107 2°53.976 19.9183 0.019372 0.107701 -3.020363
2011-10-13 07:57:24 51°16.105 2°53.973 19.9209 0.019372 0.107703 -3.020363
2011-10-13 07:57:28 51°16.104 2°53.971 19.9215 0.019372 0.107703 -3.020363
2011-10-13 07:57:34 51°16.102 2°53.968 19.9241 0.019372 0.107707 -3.020363
2011-10-13 07:57:39 51°16.101 2°53.965 19.9243 0.019372 0.10771 -3.020363
2011-10-13 07:57:43 51°16.1 2°53.963 19.9267 0.019372 0.107712 -3.020363
2011-10-13 07:57:48 51°16.098 2°53.96 19.9241 0.019372 0.107714 -3.020363
2011-10-13 07:57:53 51°16.097 2°53.958 19.9298 0.019372 0.107717 -3.020363
2011-10-13 07:57:59 51°16.095 2°53.955 19.9325 0.019372 0.107717 -3.020363
2011-10-13 07:58:04 51°16.092 2°53.952 19.9336 0.019372 0.107721 -3.020363
2011-10-13 07:58:08 51°16.09 2°53.95 19.9358 0.019372 0.107722 -3.020363
2011-10-13 07:58:13 51°16.087 2°53.948 19.9351 0.019372 0.107726 -3.020363
2011-10-13 07:58:18 51°16.083 2°53.945 19.938 0.019372 0.107726 -3.020363
2011-10-13 07:58:24 51°16.077 2°53.942 19.9378 0.019372 0.107729 -3.020363
2011-10-13 07:58:28 51°16.073 2°53.941 19.9418 0.019372 0.107729 -3.020363
2011-10-13 07:58:33 51°16.067 2°53.938 19.9378 0.019372 0.107733 -3.020363
2011-10-13 07:58:38 51°16.06 2°53.937 19.94 0.019372 0.107733 -3.020363
2011-10-13 07:58:44 51°16.051 2°53.934 19.9453 0.019372 0.107735 -3.020363
2011-10-13 07:58:48 51°16.044 2°53.932 19.9394 0.019372 0.107736 -3.020363
2011-10-13 07:58:53 51°16.035 2°53.929 19.9453 0.019372 0.107738 -3.020363
2011-10-13 07:58:59 51°16.024 2°53.925 19.9451 0.019372 0.107738 -3.020363
2011-10-13 07:59:04 51°16.015 2°53.92 19.9467 0.019372 0.10774 -3.020363
2011-10-13 07:59:08 51°16.007 2°53.916 19.9481 0.019372 0.107742 -3.020363
2011-10-13 07:59:13 51°15.997 2°53.91 19.9556 0.019372 0.107745 -3.020363
2011-10-13 07:59:19 51°15.984 2°53.903 19.9539 0.019372 0.107747 -3.020363
2011-10-13 07:59:23 51°15.976 2°53.897 19.9561 0.019372 0.107749 -3.020363
2011-10-13 07:59:28 51°15.964 2°53.889 19.9525 0.019372 0.107749 -3.020363
2011-10-13 07:59:34 51°15.949 2°53.878 19.9591 0.019372 0.107747 -3.020363
2011-10-13 07:59:39 51°15.937 2°53.868 19.9542 0.019372 0.107752 -3.020363
2011-10-13 07:59:43 51°15.926 2°53.86 19.9586 0.019372 0.10774 -3.020363
2011-10-13 07:59:48 51°15.913 2°53.849 19.9618 0.019372 0.10774 -3.020363
2011-10-13 07:59:53 51°15.899 2°53.837 19.9635 0.019372 0.10774 -3.020363
2011-10-13 07:59:59 51°15.882 2°53.822 19.9656 0.019372 0.10774 -3.020363
2011-10-13 08:00:04 51°15.867 2°53.81 19.9673 0.019372 0.10774 -3.020363
2011-10-13 08:00:08 51°15.856 2°53.798 19.9725 0.019372 0.107744 -3.020363
2011-10-13 08:00:13 51°15.841 2°53.784 19.9736 0.019372 0.107744 -3.020363
2011-10-13 08:00:19 51°15.824 2°53.766 19.9793 0.019372 0.107759 -3.020363
2011-10-13 08:00:24 51°15.808 2°53.752 19.9811 0.019372 0.107744 -3.020363
2011-10-13 08:00:28 51°15.795 2°53.739 19.9821 0.019372 0.107744 -3.020363
2011-10-13 08:00:33 51°15.78 2°53.726 19.9881 0.019372 0.107752 -3.020363
2011-10-13 08:00:38 51°15.765 2°53.711 19.9877 0.019372 0.107758 -3.020363
2011-10-13 08:00:44 51°15.746 2°53.691 19.9867 0.019372 0.107763 -3.020363
2011-10-13 08:00:48 51°15.734 2°53.678 19.9882 0.019372 0.10777 -3.020363
2011-10-13 08:00:53 51°15.719 2°53.661 19.9932 0.019372 0.107775 -3.020363
2011-10-13 08:00:59 51°15.701 2°53.641 19.9943 0.019372 0.107775 -3.020363
2011-10-13 08:01:04 51°15.686 2°53.623 19.9948 0.019372 0.107777 -3.020363
2011-10-13 08:01:08 51°15.674 2°53.61 19.9958 0.019372 0.107782 -3.020363
2011-10-13 08:01:13 51°15.659 2°53.592 19.9986 0.01927 0.107221 -3.020363
2011-10-13 08:01:19 51°15.64 2°53.572 19.9998 0.01927 0.107225 -3.020363
2011-10-13 08:01:24 51°15.625 2°53.554 20.0002 0.01927 0.107232 -3.020363
2011-10-13 08:01:28 51°15.613 2°53.541 20.0045 0.01927 0.107232 -3.020363
2011-10-13 08:01:33 51°15.598 2°53.524 20.0059 0.01927 0.107232 -3.020363
2011-10-13 08:01:39 51°15.58 2°53.504 20.0114 0.01927 0.107237 -3.020363
2011-10-13 08:01:44 51°15.565 2°53.487 20.0111 0.01927 0.107235 -3.020363
2011-10-13 08:01:48 51°15.553 2°53.473 20.0141 0.01927 0.107239 -3.020363
2011-10-13 08:01:53 51°15.537 2°53.457 20.0153 0.01927 0.10724 -3.020363
2011-10-13 08:01:59 51°15.52 2°53.435 20.0162 0.01927 0.10724 -3.020363
2011-10-13 08:02:04 51°15.504 2°53.419 20.0184 0.01927 0.107242 -3.020363
2011-10-13 08:02:08 51°15.493 2°53.405 20.0198 0.01927 0.107246 -3.020363
2011-10-13 08:02:14 51°15.474 2°53.385 20.0228 0.01927 0.107249 -3.020363
2011-10-13 08:02:19 51°15.459 2°53.367 20.0234 0.01927 0.107251 -3.020363
2011-10-13 08:02:24 51°15.444 2°53.35 20.0247 0.01927 0.107255 -3.020363
2011-10-13 08:02:28 51°15.432 2°53.337 20.0273 0.01927 0.107255 -3.020363
2011-10-13 08:02:33 51°15.417 2°53.319 20.03 0.01927 0.107253 -3.020363
2011-10-13 08:02:38 51°15.402 2°53.301 20.0315 0.01927 0.107253 -3.020363
2011-10-13 08:02:44 51°15.386 2°53.279 20.0354 0.01927 0.107258 -3.020363
2011-10-13 08:02:48 51°15.374 2°53.265 20.0377 0.01927 0.107249 -3.020363
2011-10-13 08:02:53 51°15.36 2°53.244 20.0406 0.01927 0.107258 -3.020363
2011-10-13 08:02:58 51°15.346 2°53.226 20.0425 0.01927 0.107258 -3.020363
2011-10-13 08:03:04 51°15.33 2°53.202 20.0447 0.01927 0.107262 -3.020363
2011-10-13 08:03:08 51°15.318 2°53.187 20.0467 0.01927 0.107263 -3.020363
2011-10-13 08:03:13 51°15.304 2°53.167 20.048 0.01927 0.107269 -3.020363
2011-10-13 08:03:19 51°15.287 2°53.144 20.0492 0.01927 0.10727 -3.020363
2011-10-13 08:03:24 51°15.273 2°53.125 20.051 0.01927 0.107274 -3.020363
2011-10-13 08:03:28 51°15.262 2°53.11 20.0529 0.01927 0.107274 -3.020363
2011-10-13 08:03:33 51°15.248 2°53.09 20.0544 0.01927 0.107276 -3.020363
2011-10-13 08:03:39 51°15.231 2°53.068 20.0581 0.01927 0.107277 -3.020363
2011-10-13 08:03:44 51°15.217 2°53.048 20.0597 0.01927 0.107281 -3.020363
2011-10-13 08:03:48 51°15.206 2°53.033 20.0609 0.01927 0.107283 -3.020363
2011-10-13 08:03:53 51°15.191 2°53.015 20.0637 0.01927 0.107284 -3.020363
2011-10-13 08:03:59 51°15.174 2°52.992 20.065 0.01927 0.107284 -3.020363
2011-10-13 08:04:04 51°15.159 2°52.974 20.0674 0.01927 0.107284 -3.020363
2011-10-13 08:04:08 51°15.148 2°52.96 20.0682 0.01927 0.107288 -3.020363
2011-10-13 08:04:14 51°15.13 2°52.938 20.0694 0.01927 0.107288 -3.020363
2011-10-13 08:04:19 51°15.116 2°52.919 20.0718 0.01927 0.10729 -3.020363
2011-10-13 08:04:24 51°15.101 2°52.901 20.0743 0.01927 0.10729 -3.020363
2011-10-13 08:04:28 51°15.09 2°52.887 20.0773 0.01927 0.10729 -3.020363
2011-10-13 08:04:33 51°15.076 2°52.867 20.078 0.01927 0.107293 -3.020363
2011-10-13 08:04:39 51°15.058 2°52.846 20.0813 0.01927 0.107291 -3.020363
2011-10-13 08:04:44 51°15.044 2°52.827 20.0833 0.01927 0.107295 -3.020363
2011-10-13 08:04:48 51°15.033 2°52.813 20.0845 0.01927 0.107295 -3.020363
2011-10-13 08:04:53 51°15.019 2°52.794 20.0859 0.01927 0.107297 -3.020363
2011-10-13 08:04:59 51°15.001 2°52.772 20.087 0.01927 0.107297 -3.020363
2011-10-13 08:05:04 51°14.987 2°52.754 20.0876 0.01927 0.107298 -3.020363
2011-10-13 08:05:08 51°14.975 2°52.739 20.0912 0.01927 0.107298 -3.020363
2011-10-13 08:05:13 51°14.961 2°52.72 20.0942 0.01927 0.1073 -3.020363
2011-10-13 08:05:18 51°14.947 2°52.703 20.0959 0.01927 0.107302 -3.020363
2011-10-13 08:05:24 51°14.93 2°52.68 20.0974 0.01927 0.107304 -3.020363
2011-10-13 08:05:28 51°14.918 2°52.666 20.0988 0.01927 0.107304 -3.020363
2011-10-13 08:05:33 51°14.904 2°52.648 20.1003 0.01927 0.107304 -3.020363
2011-10-13 08:05:39 51°14.885 2°52.628 20.1036 0.01927 0.107306 -3.020363
2011-10-13 08:05:44 51°14.871 2°52.611 20.1059 0.01927 0.107307 -3.020363
2011-10-13 08:05:48 51°14.858 2°52.598 20.1049 0.01927 0.107307 -3.020363
2011-10-13 08:05:53 51°14.843 2°52.583 20.1087 0.01927 0.107309 -3.020363
2011-10-13 08:05:59 51°14.825 2°52.564 20.1087 0.01927 0.107309 -3.020363
2011-10-13 08:06:04 51°14.809 2°52.548 20.1108 0.01927 0.107309 -3.020363
2011-10-13 08:06:08 51°14.797 2°52.536 20.1139 0.01927 0.107311 -3.020363
2011-10-13 08:06:13 51°14.781 2°52.52 20.116 0.01927 0.107313 -3.020363
2011-10-13 08:06:19 51°14.763 2°52.501 20.1172 0.01927 0.107314 -3.020363
2011-10-13 08:06:24 51°14.748 2°52.485 20.1156 0.01927 0.107314 -3.020363
2011-10-13 08:06:28 51°14.736 2°52.472 20.1225 0.01927 0.107314 -3.020363
2011-10-13 08:06:33 51°14.722 2°52.453 20.1214 0.01927 0.107314 -3.020363
2011-10-13 08:06:39 51°14.705 2°52.43 20.1247 0.01927 0.107314 -3.020363
2011-10-13 08:06:44 51°14.693 2°52.41 20.1238 0.01927 0.107316 -3.020363
2011-10-13 08:06:48 51°14.682 2°52.393 20.1302 0.01927 0.107316 -3.020363
2011-10-13 08:06:53 51°14.671 2°52.371 20.1302 0.01927 0.107316 -3.020363
2011-10-13 08:06:59 51°14.657 2°52.344 20.1319 0.01927 0.107316 -3.020363
2011-10-13 08:07:04 51°14.647 2°52.32 20.1354 0.01927 0.107318 -3.020363
2011-10-13 08:07:08 51°14.639 2°52.301 20.1399 0.01927 0.10732 -3.020363
2011-10-13 08:07:13 51°14.629 2°52.277 20.1385 0.01927 0.107323 -3.020363
2011-10-13 08:07:19 51°14.616 2°52.25 20.1443 0.01927 0.107321 -3.020363
2011-10-13 08:07:24 51°14.604 2°52.227 20.144 0.01927 0.107341 -3.020363
2011-10-13 08:07:28 51°14.594 2°52.211 20.1469 0.01927 0.107341 -3.020363
2011-10-13 08:07:33 51°14.581 2°52.191 20.1479 0.01927 0.107325 -3.020363
2011-10-13 08:07:38 51°14.567 2°52.173 20.1487 0.01927 0.107314 -3.020363
2011-10-13 08:07:44 51°14.55 2°52.152 20.1493 0.01927 0.107316 -3.020363
2011-10-13 08:07:48 51°14.538 2°52.139 20.1521 0.01927 0.10732 -3.020363
2011-10-13 08:07:53 51°14.524 2°52.122 20.1503 0.01927 0.107323 -3.020363
2011-10-13 08:07:58 51°14.509 2°52.107 20.1516 0.01927 0.107323 -3.020363
2011-10-13 08:08:04 51°14.49 2°52.089 20.1581 0.01927 0.107325 -3.020363
2011-10-13 08:08:08 51°14.478 2°52.076 20.1529 0.01927 0.107328 -3.020363
2011-10-13 08:08:13 51°14.463 2°52.06 20.1563 0.01927 0.107327 -3.020363
2011-10-13 08:08:19 51°14.448 2°52.037 20.1597 0.01927 0.107327 -3.020363
2011-10-13 08:08:24 51°14.436 2°52.019 20.1531 0.01927 0.107325 -3.020363
2011-10-13 08:08:28 51°14.427 2°52.003 20.1693 0.01927 0.107325 -3.020363
2011-10-13 08:08:33 51°14.42 2°51.982 20.1662 0.01927 0.10733 -3.020363
2011-10-13 08:08:39 51°14.41 2°51.959 20.1729 0.01927 0.107337 -3.020363
2011-10-13 08:08:44 51°14.404 2°51.94 20.1725 0.01927 0.107337 -3.020363
2011-10-13 08:08:48 51°14.399 2°51.926 20.1772 0.01927 0.107335 -3.020363
2011-10-13 08:08:53 51°14.395 2°51.908 20.1784 0.01927 0.107344 -3.020363
2011-10-13 08:08:59 51°14.389 2°51.888 20.1798 0.01927 0.107344 -3.020363
2011-10-13 08:09:04 51°14.385 2°51.873 20.183 0.01927 0.107344 -3.020363
2011-10-13 08:09:08 51°14.382 2°51.861 20.183 0.01927 0.107344 -3.020363
2011-10-13 08:09:13 51°14.379 2°51.847 20.1858 0.01927 0.107348 -3.020363
2011-10-13 08:09:19 51°14.376 2°51.832 20.1883 0.01927 0.107367 -3.020363
2011-10-13 08:09:24 51°14.374 2°51.82 20.1905 0.01927 0.107365 -3.020363
2011-10-13 08:09:28 51°14.373 2°51.811 20.1928 0.01927 0.107365 -3.020363
2011-10-13 08:09:33 51°14.372 2°51.801 20.1945 0.01927 0.10736 -3.020363
2011-10-13 08:09:38 51°14.371 2°51.792 20.1948 0.01927 0.10736 -3.020363
2011-10-13 08:09:44 51°14.37 2°51.782 20.2006 0.01927 0.107358 -3.020363
2011-10-13 08:09:48 51°14.369 2°51.776 20.2009 0.01927 0.10736 -3.020363
2011-10-13 08:09:53 51°14.368 2°51.769 20.2043 0.01927 0.107353 -3.020363
2011-10-13 08:09:58 51°14.368 2°51.761 20.2065 0.01927 0.107353 -3.020363
2011-10-13 08:10:04 51°14.367 2°51.752 20.2084 0.01927 0.107364 -3.020363
2011-10-13 08:10:08 51°14.366 2°51.746 20.2113 0.01927 0.107371 -3.020363
2011-10-13 08:10:13 51°14.366 2°51.737 20.2133 0.01927 0.107378 -3.020363
2011-10-13 08:10:19 51°14.365 2°51.726 20.216 0.01927 0.10735 -3.020363
2011-10-13 08:10:24 51°14.364 2°51.717 20.2181 0.01927 0.107348 -3.020363
2011-10-13 08:10:28 51°14.364 2°51.709 20.2199 0.01927 0.107348 -3.020363
2011-10-13 08:10:33 51°14.364 2°51.699 20.2166 0.01927 0.10735 -3.020363
2011-10-13 08:10:39 51°14.364 2°51.687 20.2223 0.01927 0.107355 -3.020363
2011-10-13 08:10:44 51°14.363 2°51.677 20.2252 0.01927 0.107358 -3.020363
2011-10-13 08:10:48 51°14.363 2°51.669 20.2271 0.01927 0.107353 -3.020363
2011-10-13 08:10:54 51°14.364 2°51.656 20.2268 0.01927 0.107351 -3.020363
2011-10-13 08:10:59 51°14.364 2°51.646 20.2262 0.01927 0.107351 -3.020363
2011-10-13 08:11:03 51°14.364 2°51.637 20.2262 0.01927 0.107357 -3.020363
2011-10-13 08:11:08 51°14.365 2°51.627 20.2339 0.01927 0.10736 -3.020363
2011-10-13 08:11:13 51°14.366 2°51.616 20.2311 0.01927 0.107364 -3.020363
2011-10-13 08:11:19 51°14.367 2°51.604 20.2358 0.01927 0.107365 -3.020363
2011-10-13 08:11:24 51°14.368 2°51.593 20.2368 0.01927 0.107369 -3.020363
2011-10-13 08:11:28 51°14.369 2°51.585 20.2384 0.01927 0.107369 -3.020363
2011-10-13 08:11:33 51°14.37 2°51.574 20.2395 0.01927 0.107371 -3.020363
2011-10-13 08:11:39 51°14.372 2°51.562 20.2458 0.01927 0.107372 -3.020363
2011-10-13 08:11:44 51°14.374 2°51.551 20.245 0.01927 0.107374 -3.020363
2011-10-13 08:11:48 51°14.375 2°51.543 20.248 0.01927 0.107376 -3.020363
2011-10-13 08:11:53 51°14.377 2°51.533 20.252 0.01927 0.107379 -3.020363
2011-10-13 08:11:58 51°14.379 2°51.523 20.2542 0.01927 0.107379 -3.020363
2011-10-13 08:12:04 51°14.382 2°51.511 20.2508 0.01927 0.107381 -3.020363
2011-10-13 08:12:08 51°14.383 2°51.503 20.2545 0.01927 0.107383 -3.020363
2011-10-13 08:12:13 51°14.385 2°51.493 20.2572 0.01927 0.107385 -3.020363
2011-10-13 08:12:19 51°14.387 2°51.48 20.2608 0.01927 0.107388 -3.020363
2011-10-13 08:12:24 51°14.389 2°51.47 20.2633 0.01927 0.10739 -3.020363
2011-10-13 08:12:28 51°14.39 2°51.462 20.264 0.01927 0.10739 -3.020363
2011-10-13 08:12:33 51°14.391 2°51.453 20.2682 0.01927 0.107392 -3.020363
2011-10-13 08:12:39 51°14.392 2°51.441 20.267 0.01927 0.107395 -3.020363
2011-10-13 08:12:43 51°14.393 2°51.433 20.2677 0.01927 0.107399 -3.020363
2011-10-13 08:12:48 51°14.393 2°51.423 20.2686 0.01927 0.107401 -3.020363
2011-10-13 08:12:54 51°14.394 2°51.412 20.2687 0.01927 0.107401 -3.020363
2011-10-13 08:12:58 51°14.394 2°51.405 20.2667 0.01927 0.107401 -3.020363
2011-10-13 08:13:03 51°14.394 2°51.395 20.2753 0.01927 0.107404 -3.020363
2011-10-13 08:13:08 51°14.394 2°51.386 20.2754 0.01927 0.107404 -3.020363
2011-10-13 08:13:13 51°14.394 2°51.377 20.2769 0.01927 0.107406 -3.020363
2011-10-13 08:13:19 51°14.394 2°51.366 20.2772 0.01927 0.107408 -3.020363
2011-10-13 08:13:24 51°14.394 2°51.358 20.2765 0.01927 0.107409 -3.020363
2011-10-13 08:13:28 51°14.394 2°51.351 20.2842 0.01927 0.107409 -3.020363
2011-10-13 08:13:33 51°14.394 2°51.342 20.2759 0.01927 0.107411 -3.020363
2011-10-13 08:13:39 51°14.394 2°51.332 20.2899 0.01927 0.107413 -3.020363
2011-10-13 08:13:44 51°14.393 2°51.324 20.2915 0.01927 0.107416 -3.020363
2011-10-13 08:13:48 51°14.393 2°51.317 20.2863 0.01927 0.107418 -3.020363
2011-10-13 08:13:53 51°14.393 2°51.309 20.2944 0.01927 0.10742 -3.020363
2011-10-13 08:13:58 51°14.392 2°51.301 20.2982 0.01927 0.10742 -3.020363
2011-10-13 08:14:04 51°14.391 2°51.291 20.2959 0.01927 0.107422 -3.020363
2011-10-13 08:14:08 51°14.391 2°51.285 20.3012 0.01927 0.107424 -3.020363
2011-10-13 08:14:13 51°14.39 2°51.277 20.2981 0.01927 0.107425 -3.020363
2011-10-13 08:14:18 51°14.389 2°51.269 20.3085 0.01927 0.107427 -3.020363
2011-10-13 08:14:24 51°14.388 2°51.26 20.308 0.01927 0.107431 -3.020363
2011-10-13 08:14:28 51°14.387 2°51.253 20.3119 0.01927 0.107431 -3.020363
2011-10-13 08:14:33 51°14.387 2°51.246 20.3058 0.01927 0.107432 -3.020363
2011-10-13 08:14:39 51°14.385 2°51.237 20.3157 0.01927 0.107434 -3.020363
2011-10-13 08:14:44 51°14.384 2°51.229 20.3082 0.01927 0.107436 -3.020363
2011-10-13 08:14:48 51°14.384 2°51.223 20.3116 0.01927 0.107439 -3.020363
2011-10-13 08:14:53 51°14.382 2°51.215 20.3165 0.01927 0.107441 -3.020363
2011-10-13 08:14:59 51°14.381 2°51.206 20.3162 0.01927 0.107441 -3.020363
2011-10-13 08:15:04 51°14.379 2°51.198 20.3263 0.01927 0.107443 -3.020363
2011-10-13 08:15:08 51°14.379 2°51.192 20.3232 0.01927 0.107446 -3.020363
2011-10-13 08:15:13 51°14.377 2°51.185 20.3261 0.01927 0.107448 -3.020363
2011-10-13 08:15:19 51°14.375 2°51.176 20.328 0.01927 0.10745 -3.020363
2011-10-13 08:15:24 51°14.374 2°51.169 20.3336 0.01927 0.107454 -3.020363
2011-10-13 08:15:28 51°14.373 2°51.163 20.3286 0.01927 0.107454 -3.020363
2011-10-13 08:15:33 51°14.371 2°51.155 20.3366 0.01927 0.107455 -3.020363
2011-10-13 08:15:39 51°14.369 2°51.147 20.3375 0.01927 0.107457 -3.020363
2011-10-13 08:15:44 51°14.367 2°51.139 20.3388 0.019167 0.106895 -3.020363
2011-10-13 08:15:48 51°14.366 2°51.134 20.3383 0.019167 0.106898 -3.020363
2011-10-13 08:15:53 51°14.364 2°51.126 20.3382 0.019167 0.1069 -3.020363
2011-10-13 08:15:59 51°14.362 2°51.117 20.3431 0.019167 0.1069 -3.020363
2011-10-13 08:16:04 51°14.36 2°51.11 20.3387 0.019167 0.106902 -3.020363
2011-10-13 08:16:08 51°14.359 2°51.105 20.3472 0.019167 0.106903 -3.020363
2011-10-13 08:16:13 51°14.357 2°51.097 20.3441 0.019167 0.106907 -3.020363
2011-10-13 08:16:19 51°14.354 2°51.089 20.3535 0.019167 0.106909 -3.020363
2011-10-13 08:16:24 51°14.353 2°51.081 20.3518 0.019167 0.10691 -3.020363
2011-10-13 08:16:28 51°14.351 2°51.076 20.3487 0.019167 0.10691 -3.020363
2011-10-13 08:16:33 51°14.349 2°51.069 20.3604 0.019167 0.106912 -3.020363
2011-10-13 08:16:39 51°14.347 2°51.06 20.3607 0.019167 0.106916 -3.020363
2011-10-13 08:16:44 51°14.345 2°51.053 20.3552 0.019167 0.106917 -3.020363
2011-10-13 08:16:48 51°14.343 2°51.047 20.3636 0.019167 0.106919 -3.020363
2011-10-13 08:16:53 51°14.342 2°51.04 20.3568 0.019167 0.106923 -3.020363
2011-10-13 08:16:59 51°14.339 2°51.032 20.364 0.019167 0.106923 -3.020363
2011-10-13 08:17:04 51°14.338 2°51.024 20.3634 0.019167 0.106924 -3.020363
2011-10-13 08:17:08 51°14.336 2°51.019 20.3751 0.019167 0.106926 -3.020363
2011-10-13 08:17:13 51°14.334 2°51.011 20.3662 0.019167 0.10693 -3.020363
2011-10-13 08:17:19 51°14.332 2°51.003 20.3808 0.019167 0.10693 -3.020363
2011-10-13 08:17:23 51°14.33 2°50.997 20.3743 0.019167 0.106933 -3.020363
2011-10-13 08:17:28 51°14.328 2°50.99 20.3766 0.019167 0.106933 -3.020363
2011-10-13 08:17:34 51°14.326 2°50.982 20.3837 0.019167 0.106923 -3.020363
2011-10-13 08:17:38 51°14.324 2°50.976 20.3812 0.019167 0.106924 -3.020363
2011-10-13 08:17:44 51°14.322 2°50.967 20.3864 0.019167 0.106928 -3.020363
2011-10-13 08:17:48 51°14.32 2°50.962 20.3856 0.019167 0.106931 -3.020363
2011-10-13 08:17:53 51°14.319 2°50.955 20.3846 0.019167 0.106935 -3.020363
2011-10-13 08:17:59 51°14.316 2°50.946 20.3893 0.019167 0.106935 -3.020363
2011-10-13 08:18:04 51°14.314 2°50.939 20.3931 0.019167 0.106938 -3.020363
2011-10-13 08:18:08 51°14.312 2°50.934 20.3879 0.019167 0.10694 -3.020363
2011-10-13 08:18:13 51°14.31 2°50.927 20.3972 0.019167 0.106942 -3.020363
2011-10-13 08:18:19 51°14.308 2°50.918 20.399 0.019167 0.106945 -3.020363
2011-10-13 08:18:24 51°14.306 2°50.911 20.4017 0.019167 0.106947 -3.020363
2011-10-13 08:18:28 51°14.304 2°50.905 20.3967 0.019167 0.106947 -3.020363
2011-10-13 08:18:33 51°14.302 2°50.898 20.4027 0.019167 0.106947 -3.020363
2011-10-13 08:18:38 51°14.3 2°50.891 20.4 0.019167 0.106951 -3.020363
2011-10-13 08:18:44 51°14.297 2°50.883 20.4083 0.019167 0.106952 -3.020363
2011-10-13 08:18:48 51°14.295 2°50.877 20.4044 0.019167 0.106952 -3.020363
2011-10-13 08:18:53 51°14.293 2°50.87 20.4039 0.019167 0.106954 -3.020363
2011-10-13 08:18:59 51°14.29 2°50.862 20.4087 0.019167 0.106954 -3.020363
2011-10-13 08:19:04 51°14.288 2°50.855 20.413 0.019167 0.106956 -3.020363
2011-10-13 08:19:08 51°14.286 2°50.849 20.4145 0.019167 0.106958 -3.020363
2011-10-13 08:19:13 51°14.284 2°50.842 20.4208 0.019167 0.106961 -3.020363
2011-10-13 08:19:19 51°14.282 2°50.834 20.4095 0.019167 0.106961 -3.020363
2011-10-13 08:19:24 51°14.279 2°50.827 20.422 0.019167 0.106963 -3.020363
2011-10-13 08:19:28 51°14.277 2°50.821 20.4212 0.019167 0.106963 -3.020363
2011-10-13 08:19:33 51°14.275 2°50.814 20.4254 0.019167 0.106965 -3.020363
2011-10-13 08:19:39 51°14.272 2°50.806 20.4325 0.019167 0.106967 -3.020363
2011-10-13 08:19:44 51°14.27 2°50.799 20.4283 0.019167 0.106968 -3.020363
2011-10-13 08:19:48 51°14.268 2°50.794 20.4346 0.019167 0.106968 -3.020363
2011-10-13 08:19:54 51°14.265 2°50.785 20.4392 0.019167 0.10697 -3.020363
2011-10-13 08:19:59 51°14.263 2°50.778 20.4365 0.019167 0.10697 -3.020363
2011-10-13 08:20:03 51°14.261 2°50.773 20.4459 0.019167 0.106972 -3.020363
2011-10-13 08:20:08 51°14.259 2°50.766 20.4337 0.019167 0.106975 -3.020363
2011-10-13 08:20:13 51°14.256 2°50.759 20.4445 0.019167 0.106974 -3.020363
2011-10-13 08:20:19 51°14.254 2°50.751 20.4369 0.019167 0.106975 -3.020363
2011-10-13 08:20:24 51°14.251 2°50.744 20.4493 0.019167 0.106977 -3.020363
2011-10-13 08:20:28 51°14.25 2°50.738 20.4415 0.019167 0.106977 -3.020363
2011-10-13 08:20:33 51°14.246 2°50.732 20.4579 0.019167 0.106989 -3.020363
2011-10-13 08:20:38 51°14.245 2°50.725 20.4424 0.019167 0.106984 -3.020363
2011-10-13 08:20:44 51°14.241 2°50.717 20.467 0.019167 0.106975 -3.020363
2011-10-13 08:20:48 51°14.24 2°50.711 20.4483 0.019167 0.106977 -3.020363
2011-10-13 08:20:53 51°14.237 2°50.705 20.467 0.019167 0.106982 -3.020363
2011-10-13 08:20:58 51°14.235 2°50.697 20.4642 0.019167 0.106982 -3.020363
2011-10-13 08:21:04 51°14.232 2°50.689 20.474 0.019167 0.106982 -3.020363
2011-10-13 08:21:08 51°14.23 2°50.684 20.4611 0.019167 0.106986 -3.020363
2011-10-13 08:21:13 51°14.227 2°50.677 20.4659 0.019167 0.106988 -3.020363
2011-10-13 08:21:18 51°14.224 2°50.67 20.4714 0.019167 0.106986 -3.020363
2011-10-13 08:21:24 51°14.222 2°50.662 20.4764 0.019167 0.106989 -3.020363
2011-10-13 08:21:28 51°14.22 2°50.657 20.4798 0.019167 0.106989 -3.020363
2011-10-13 08:21:33 51°14.217 2°50.65 20.4702 0.019167 0.106988 -3.020363
2011-10-13 08:21:39 51°14.214 2°50.642 20.4839 0.019167 0.106988 -3.020363
2011-10-13 08:21:44 51°14.212 2°50.635 20.4776 0.019167 0.106989 -3.020363
2011-10-13 08:21:48 51°14.21 2°50.629 20.4863 0.019167 0.106989 -3.020363
2011-10-13 08:21:54 51°14.207 2°50.621 20.4849 0.019167 0.106991 -3.020363
2011-10-13 08:21:59 51°14.205 2°50.614 20.4899 0.019167 0.106991 -3.020363
2011-10-13 08:22:03 51°14.203 2°50.609 20.4865 0.019167 0.106991 -3.020363
2011-10-13 08:22:08 51°14.2 2°50.602 20.4948 0.019167 0.106993 -3.020363
2011-10-13 08:22:13 51°14.198 2°50.595 20.4889 0.019167 0.106993 -3.020363
2011-10-13 08:22:19 51°14.195 2°50.587 20.4967 0.019167 0.106993 -3.020363
2011-10-13 08:22:24 51°14.193 2°50.58 20.4881 0.019167 0.106993 -3.020363
2011-10-13 08:22:28 51°14.191 2°50.574 20.5017 0.019167 0.106993 -3.020363
2011-10-13 08:22:33 51°14.189 2°50.567 20.4907 0.019167 0.106993 -3.020363
2011-10-13 08:22:39 51°14.185 2°50.559 20.5065 0.019167 0.106993 -3.020363
2011-10-13 08:22:44 51°14.184 2°50.552 20.495 0.019167 0.106995 -3.020363
2011-10-13 08:22:48 51°14.181 2°50.547 20.5129 0.019167 0.106995 -3.020363
2011-10-13 08:22:53 51°14.18 2°50.539 20.5032 0.019167 0.106998 -3.020363
2011-10-13 08:22:59 51°14.176 2°50.531 20.5248 0.019167 0.106998 -3.020363
2011-10-13 08:23:04 51°14.175 2°50.524 20.5082 0.019167 0.106988 -3.020363
2011-10-13 08:23:08 51°14.172 2°50.519 20.5236 0.019167 0.106975 -3.020363
2011-10-13 08:23:13 51°14.171 2°50.511 20.5081 0.019167 0.106977 -3.020363
2011-10-13 08:23:18 51°14.168 2°50.505 20.5259 0.019167 0.106981 -3.020363
2011-10-13 08:23:24 51°14.166 2°50.496 20.5127 0.019167 0.106984 -3.020363
2011-10-13 08:23:28 51°14.163 2°50.49 20.5273 0.019167 0.106984 -3.020363
2011-10-13 08:23:33 51°14.162 2°50.483 20.5204 0.019167 0.106988 -3.020363
2011-10-13 08:23:39 51°14.158 2°50.475 20.528 0.019167 0.106989 -3.020363
2011-10-13 08:23:44 51°14.157 2°50.468 20.5213 0.019167 0.106993 -3.020363
2011-10-13 08:23:48 51°14.155 2°50.462 20.5315 0.019167 0.106993 -3.020363
2011-10-13 08:23:53 51°14.153 2°50.455 20.5302 0.019167 0.106995 -3.020363
2011-10-13 08:23:59 51°14.15 2°50.447 20.5314 0.019167 0.106995 -3.020363
2011-10-13 08:24:03 51°14.148 2°50.441 20.5319 0.019167 0.106995 -3.020363
2011-10-13 08:24:08 51°14.146 2°50.434 20.5291 0.019167 0.106995 -3.020363
2011-10-13 08:24:14 51°14.144 2°50.425 20.5302 0.019167 0.106995 -3.020363
2011-10-13 08:24:19 51°14.141 2°50.418 20.5438 0.019167 0.106996 -3.020363
2011-10-13 08:24:23 51°14.139 2°50.412 20.5408 0.019167 0.106996 -3.020363
2011-10-13 08:24:28 51°14.137 2°50.406 20.537 0.019167 0.106996 -3.020363
2011-10-13 08:24:33 51°14.135 2°50.399 20.5525 0.019167 0.106996 -3.020363
2011-10-13 08:24:39 51°14.133 2°50.39 20.5504 0.019167 0.106996 -3.020363
2011-10-13 08:24:44 51°14.13 2°50.383 20.5548 0.019167 0.106996 -3.020363
2011-10-13 08:24:48 51°14.129 2°50.377 20.5452 0.019167 0.106996 -3.020363
2011-10-13 08:24:53 51°14.126 2°50.37 20.5557 0.019167 0.106996 -3.020363
2011-10-13 08:24:59 51°14.124 2°50.361 20.5599 0.019167 0.106996 -3.020363
2011-10-13 08:25:04 51°14.122 2°50.354 20.5465 0.019167 0.106996 -3.020363
2011-10-13 08:25:08 51°14.12 2°50.349 20.5564 0.019167 0.106996 -3.020363
2011-10-13 08:25:13 51°14.118 2°50.342 20.5633 0.019167 0.106996 -3.020363
2011-10-13 08:25:18 51°14.116 2°50.334 20.5589 0.019167 0.106996 -3.020363
2011-10-13 08:25:24 51°14.113 2°50.326 20.5699 0.019167 0.106996 -3.020363
2011-10-13 08:25:28 51°14.112 2°50.32 20.5611 0.019167 0.106996 -3.020363
2011-10-13 08:25:33 51°14.109 2°50.313 20.5762 0.019167 0.106996 -3.020363
2011-10-13 08:25:39 51°14.107 2°50.304 20.575 0.019167 0.106996 -3.020363
2011-10-13 08:25:44 51°14.105 2°50.297 20.5724 0.019167 0.106996 -3.020363
2011-10-13 08:25:48 51°14.103 2°50.291 20.5766 0.019167 0.106996 -3.020363
2011-10-13 08:25:53 51°14.101 2°50.284 20.578 0.019167 0.106995 -3.020363
2011-10-13 08:25:59 51°14.099 2°50.275 20.5745 0.019167 0.106995 -3.020363
2011-10-13 08:26:03 51°14.097 2°50.27 20.5807 0.019167 0.106995 -3.020363
2011-10-13 08:26:08 51°14.095 2°50.262 20.5865 0.019167 0.106995 -3.020363
2011-10-13 08:26:13 51°14.092 2°50.255 20.5793 0.019167 0.106995 -3.020363
2011-10-13 08:26:18 51°14.09 2°50.248 20.5884 0.019167 0.106995 -3.020363
2011-10-13 08:26:23 51°14.088 2°50.241 20.5891 0.019167 0.106995 -3.020363
2011-10-13 08:26:28 51°14.086 2°50.234 20.5923 0.019167 0.106995 -3.020363
2011-10-13 08:26:33 51°14.083 2°50.227 20.5931 0.019167 0.106995 -3.020363
2011-10-13 08:26:39 51°14.081 2°50.218 20.5969 0.019167 0.106995 -3.020363
2011-10-13 08:26:44 51°14.079 2°50.211 20.5993 0.019167 0.106993 -3.020363
2011-10-13 08:26:48 51°14.077 2°50.205 20.5998 0.019167 0.106995 -3.020363
2011-10-13 08:26:53 51°14.074 2°50.198 20.5951 0.019167 0.106995 -3.020363
2011-10-13 08:26:59 51°14.072 2°50.19 20.6045 0.019167 0.106995 -3.020363
2011-10-13 08:27:04 51°14.07 2°50.183 20.6016 0.019167 0.106993 -3.020363
2011-10-13 08:27:08 51°14.068 2°50.177 20.6088 0.019167 0.106993 -3.020363
2011-10-13 08:27:13 51°14.066 2°50.17 20.6056 0.019167 0.106993 -3.020363
2011-10-13 08:27:19 51°14.063 2°50.161 20.6053 0.019167 0.106993 -3.020363
2011-10-13 08:27:24 51°14.061 2°50.154 20.6156 0.019167 0.106993 -3.020363
2011-10-13 08:27:28 51°14.059 2°50.148 20.614 0.019167 0.106993 -3.020363
2011-10-13 08:27:33 51°14.057 2°50.141 20.6201 0.019167 0.106993 -3.020363
2011-10-13 08:27:38 51°14.055 2°50.134 20.615 0.019167 0.106993 -3.020363
2011-10-13 08:27:44 51°14.054 2°50.125 20.6231 0.019167 0.106993 -3.020363
2011-10-13 08:27:48 51°14.052 2°50.119 20.6291 0.019167 0.106993 -3.020363
2011-10-13 08:27:53 51°14.05 2°50.112 20.6246 0.019167 0.106991 -3.020363
2011-10-13 08:27:59 51°14.048 2°50.103 20.6324 0.019167 0.106991 -3.020363
2011-10-13 08:28:04 51°14.046 2°50.096 20.6227 0.019167 0.106993 -3.020363
2011-10-13 08:28:08 51°14.044 2°50.091 20.628 0.019167 0.106993 -3.020363
2011-10-13 08:28:13 51°14.042 2°50.083 20.6273 0.019167 0.106991 -3.020363
2011-10-13 08:28:19 51°14.04 2°50.075 20.6319 0.019167 0.106991 -3.020363
2011-10-13 08:28:24 51°14.038 2°50.067 20.6397 0.019167 0.106991 -3.020363
2011-10-13 08:28:28 51°14.037 2°50.062 20.6275 0.019167 0.106991 -3.020363
2011-10-13 08:28:33 51°14.035 2°50.055 20.6418 0.019167 0.106991 -3.020363
2011-10-13 08:28:39 51°14.033 2°50.046 20.6474 0.019167 0.106991 -3.020363
2011-10-13 08:28:43 51°14.032 2°50.04 20.6453 0.019167 0.106991 -3.020363
2011-10-13 08:28:48 51°14.03 2°50.033 20.6431 0.019167 0.106989 -3.020363
2011-10-13 08:28:54 51°14.028 2°50.024 20.6404 0.019167 0.106991 -3.020363
2011-10-13 08:28:59 51°14.027 2°50.017 20.6429 0.019167 0.106991 -3.020363
2011-10-13 08:29:04 51°14.025 2°50.009 20.6447 0.019167 0.106989 -3.020363
2011-10-13 08:29:08 51°14.024 2°50.004 20.6475 0.019167 0.106989 -3.020363
2011-10-13 08:29:13 51°14.022 2°49.996 20.6613 0.019167 0.106989 -3.020363
2011-10-13 08:29:19 51°14.02 2°49.987 20.6515 0.019167 0.106989 -3.020363
2011-10-13 08:29:24 51°14.019 2°49.98 20.6611 0.019167 0.106989 -3.020363
2011-10-13 08:29:28 51°14.018 2°49.974 20.657 0.019167 0.106989 -3.020363
2011-10-13 08:29:33 51°14.016 2°49.967 20.6609 0.019167 0.106989 -3.020363
2011-10-13 08:29:39 51°14.014 2°49.958 20.6594 0.019167 0.106989 -3.020363
2011-10-13 08:29:44 51°14.013 2°49.951 20.6628 0.019167 0.106989 -3.020363
2011-10-13 08:29:48 51°14.011 2°49.945 20.6665 0.019167 0.106988 -3.020363
2011-10-13 08:29:53 51°14.01 2°49.938 20.6726 0.019167 0.106988 -3.020363
2011-10-13 08:29:59 51°14.008 2°49.929 20.6765 0.019167 0.106988 -3.020363
2011-10-13 08:30:04 51°14.006 2°49.922 20.6801 0.019167 0.106988 -3.020363
2011-10-13 08:30:08 51°14.005 2°49.916 20.6795 0.019167 0.106988 -3.020363
2011-10-13 08:30:13 51°14.004 2°49.908 20.6794 0.019167 0.106988 -3.020363
2011-10-13 08:30:19 51°14.002 2°49.9 20.6754 0.019167 0.106988 -3.020363
2011-10-13 08:30:24 51°14 2°49.893 20.6843 0.019167 0.106988 -3.020363
2011-10-13 08:30:28 51°13.999 2°49.887 20.6823 0.019167 0.106988 -3.020363
2011-10-13 08:30:33 51°13.997 2°49.879 20.6918 0.019167 0.106986 -3.020363
2011-10-13 08:30:39 51°13.995 2°49.87 20.6917 0.019167 0.106986 -3.020363
2011-10-13 08:30:43 51°13.994 2°49.864 20.6872 0.019167 0.106986 -3.020363
2011-10-13 08:30:48 51°13.992 2°49.857 20.6968 0.019167 0.106986 -3.020363
2011-10-13 08:30:53 51°13.991 2°49.85 20.6911 0.019167 0.106986 -3.020363
2011-10-13 08:30:58 51°13.989 2°49.842 20.6965 0.019167 0.106986 -3.020363
2011-10-13 08:31:04 51°13.987 2°49.833 20.6983 0.019167 0.106986 -3.020363
2011-10-13 08:31:08 51°13.986 2°49.827 20.6961 0.019167 0.106986 -3.020363
2011-10-13 08:31:13 51°13.984 2°49.82 20.7015 0.019167 0.106986 -3.020363
2011-10-13 08:31:19 51°13.982 2°49.811 20.7045 0.019167 0.106986 -3.020363
2011-10-13 08:31:24 51°13.98 2°49.804 20.7074 0.019167 0.106986 -3.020363
2011-10-13 08:31:28 51°13.979 2°49.798 20.7 0.019167 0.106986 -3.020363
2011-10-13 08:31:34 51°13.977 2°49.789 20.7117 0.019167 0.106986 -3.020363
2011-10-13 08:31:39 51°13.976 2°49.782 20.7088 0.019167 0.106986 -3.020363
2011-10-13 08:31:44 51°13.974 2°49.775 20.7112 0.019167 0.106984 -3.020363
2011-10-13 08:31:48 51°13.973 2°49.769 20.7203 0.019167 0.106986 -3.020363
2011-10-13 08:31:53 51°13.971 2°49.761 20.7087 0.019167 0.106986 -3.020363
2011-10-13 08:31:59 51°13.969 2°49.752 20.7276 0.019167 0.106986 -3.020363
2011-10-13 08:32:04 51°13.967 2°49.745 20.7172 0.019167 0.106986 -3.020363
2011-10-13 08:32:08 51°13.966 2°49.739 20.7305 0.019167 0.106984 -3.020363
2011-10-13 08:32:13 51°13.964 2°49.731 20.7177 0.019167 0.106986 -3.020363
2011-10-13 08:32:19 51°13.962 2°49.722 20.7306 0.019167 0.106984 -3.020363
2011-10-13 08:32:24 51°13.96 2°49.715 20.7259 0.019167 0.106984 -3.020363
2011-10-13 08:32:28 51°13.959 2°49.709 20.7331 0.019167 0.106984 -3.020363
2011-10-13 08:32:33 51°13.957 2°49.701 20.7375 0.019167 0.106984 -3.020363
2011-10-13 08:32:39 51°13.955 2°49.692 20.7386 0.019167 0.106986 -3.020363
2011-10-13 08:32:43 51°13.953 2°49.686 20.7433 0.019167 0.106984 -3.020363
2011-10-13 08:32:48 51°13.951 2°49.679 20.7407 0.019167 0.106984 -3.020363
2011-10-13 08:32:53 51°13.949 2°49.672 20.7365 0.019167 0.106984 -3.020363
2011-10-13 08:32:58 51°13.948 2°49.664 20.7433 0.019167 0.106984 -3.020363
2011-10-13 08:33:04 51°13.946 2°49.655 20.742 0.019167 0.106984 -3.020363
2011-10-13 08:33:08 51°13.944 2°49.65 20.7514 0.019167 0.106984 -3.020363
2011-10-13 08:33:13 51°13.942 2°49.642 20.7491 0.019167 0.106984 -3.020363
2011-10-13 08:33:19 51°13.94 2°49.633 20.7575 0.019167 0.106984 -3.020363
2011-10-13 08:33:24 51°13.938 2°49.626 20.7515 0.019167 0.106984 -3.020363
2011-10-13 08:33:28 51°13.937 2°49.62 20.7505 0.019167 0.106984 -3.020363
2011-10-13 08:33:33 51°13.935 2°49.612 20.7562 0.019167 0.106984 -3.020363
2011-10-13 08:33:39 51°13.932 2°49.603 20.76 0.019167 0.106984 -3.020363
2011-10-13 08:33:44 51°13.93 2°49.596 20.7563 0.019167 0.106982 -3.020363
2011-10-13 08:33:48 51°13.928 2°49.59 20.762 0.019167 0.106982 -3.020363
2011-10-13 08:33:53 51°13.926 2°49.583 20.7654 0.019167 0.106982 -3.020363
2011-10-13 08:33:59 51°13.924 2°49.574 20.7668 0.019167 0.106982 -3.020363
2011-10-13 08:34:03 51°13.922 2°49.568 20.7597 0.019167 0.106982 -3.020363
2011-10-13 08:34:08 51°13.92 2°49.561 20.7739 0.019167 0.106982 -3.020363
2011-10-13 08:34:13 51°13.918 2°49.553 20.7754 0.019167 0.106982 -3.020363
2011-10-13 08:34:18 51°13.916 2°49.546 20.7758 0.019167 0.106982 -3.020363
2011-10-13 08:34:24 51°13.914 2°49.537 20.7747 0.019167 0.106982 -3.020363
2011-10-13 08:34:28 51°13.912 2°49.531 20.7695 0.019167 0.106982 -3.020363
2011-10-13 08:34:33 51°13.91 2°49.524 20.7746 0.019167 0.106982 -3.020363
2011-10-13 08:34:39 51°13.908 2°49.515 20.7858 0.019167 0.106982 -3.020363
2011-10-13 08:34:44 51°13.907 2°49.508 20.776 0.019167 0.106982 -3.020363
2011-10-13 08:34:48 51°13.905 2°49.502 20.791 0.019167 0.106981 -3.020363
2011-10-13 08:34:53 51°13.903 2°49.495 20.7845 0.019167 0.106981 -3.020363
2011-10-13 08:34:59 51°13.901 2°49.486 20.7926 0.019167 0.106981 -3.020363
2011-10-13 08:35:03 51°13.9 2°49.48 20.7897 0.019167 0.106981 -3.020363
2011-10-13 08:35:08 51°13.898 2°49.473 20.7944 0.019167 0.106981 -3.020363
2011-10-13 08:35:14 51°13.896 2°49.464 20.7979 0.019064 0.106416 -3.020363
2011-10-13 08:35:19 51°13.894 2°49.456 20.7988 0.019167 0.106981 -3.020363
2011-10-13 08:35:23 51°13.892 2°49.45 20.8036 0.019064 0.106416 -3.020363
2011-10-13 08:35:28 51°13.891 2°49.443 20.7994 0.019064 0.106416 -3.020363
2011-10-13 08:35:33 51°13.889 2°49.435 20.8073 0.019167 0.106981 -3.020363
2011-10-13 08:35:39 51°13.887 2°49.426 20.8038 0.019167 0.106979 -3.020363
2011-10-13 08:35:44 51°13.886 2°49.419 20.8113 0.019064 0.106414 -3.020363
2011-10-13 08:35:48 51°13.884 2°49.413 19.5634 0.019167 0.106982 -3.020363
2011-10-13 08:35:53 51°13.883 2°49.406 16.3513 0.019064 0.106477 -3.020363
2011-10-13 08:35:59 51°13.881 2°49.397 16.2923 0.019064 0.106477 -3.020363
2011-10-13 08:36:04 51°13.879 2°49.389 16.271 0.019167 0.107079 -3.020363
2011-10-13 08:36:08 51°13.877 2°49.383 16.2287 0.454533 2.827358 -3.020363
2011-10-13 08:36:13 51°13.876 2°49.376 16.2097 4.197487 30.541054 -3.020363
2011-10-13 08:36:19 51°13.874 2°49.367 16.1905 3.611876 25.965435 -3.020363
2011-10-13 08:36:24 51°13.872 2°49.359 16.1783 2.55929 18.047184 -3.020363
2011-10-13 08:36:28 51°13.871 2°49.353 16.1704 2.55929 18.047184 -3.020363
2011-10-13 08:36:33 51°13.869 2°49.346 16.1649 2.49472 17.833288 -3.020363
2011-10-13 08:36:38 51°13.867 2°49.338 16.163 2.47871 17.924088 -3.020363
2011-10-13 08:36:44 51°13.865 2°49.33 16.1579 3.035568 22.588941 -3.020363
2011-10-13 08:36:48 51°13.864 2°49.324 16.1568 4.483126 34.982503 -3.020363
2011-10-13 08:36:53 51°13.862 2°49.316 16.1559 4.414254 34.581039 -3.020363
2011-10-13 08:36:59 51°13.86 2°49.308 16.1553 4.414254 34.581039 -3.020363
2011-10-13 08:37:04 51°13.858 2°49.3 16.1537 4.387496 34.413422 -3.020363
2011-10-13 08:37:08 51°13.857 2°49.294 16.153 4.372562 34.344428 -3.020363
2011-10-13 08:37:13 51°13.855 2°49.287 16.1523 4.359495 34.276331 -3.020363
2011-10-13 08:37:18 51°13.854 2°49.28 16.151 4.351614 34.235609 -3.020363
2011-10-13 08:37:23 51°13.852 2°49.272 16.1516 4.343525 34.188131 -3.020363
2011-10-13 08:37:28 51°13.85 2°49.265 16.151 4.343525 34.188131 -3.020363
2011-10-13 08:37:33 51°13.848 2°49.258 16.1508 4.338755 34.157984 -3.020363
2011-10-13 08:37:39 51°13.847 2°49.249 16.1504 4.335644 34.143834 -3.020363
2011-10-13 08:37:44 51°13.845 2°49.242 16.1501 4.33274 34.12732 -3.020363
2011-10-13 08:37:48 51°13.844 2°49.235 16.1503 4.330978 34.121551 -3.020363
2011-10-13 08:37:53 51°13.842 2°49.228 16.1508 4.329526 34.113638 -3.020363
2011-10-13 08:37:59 51°13.84 2°49.219 16.15 4.329526 34.113638 -3.020363
2011-10-13 08:38:04 51°13.838 2°49.212 16.1509 4.327659 34.103463 -3.020363
2011-10-13 08:38:08 51°13.837 2°49.206 16.1522 4.326311 34.095764 -3.020363
2011-10-13 08:38:13 51°13.836 2°49.199 16.1536 4.325689 34.093766 -3.020363
2011-10-13 08:38:19 51°13.834 2°49.19 16.1542 4.325274 34.093597 -3.020363
2011-10-13 08:38:24 51°13.832 2°49.183 16.1549 4.324963 34.093644 -3.020363
2011-10-13 08:38:28 51°13.831 2°49.176 16.1552 4.324963 34.093644 -3.020363
2011-10-13 08:38:33 51°13.829 2°49.169 16.1556 4.323926 34.085895 -3.020363
2011-10-13 08:38:38 51°13.828 2°49.162 16.1559 4.323615 34.085245 -3.020363
2011-10-13 08:38:44 51°13.825 2°49.153 16.1562 4.323304 34.083199 -3.020363
2011-10-13 08:38:48 51°13.824 2°49.147 16.1552 4.321334 34.067917 -3.020363
2011-10-13 08:38:53 51°13.822 2°49.14 16.1552 4.322474 34.077976 -3.020363
2011-10-13 08:38:59 51°13.821 2°49.131 16.1555 4.322474 34.077976 -3.020363
2011-10-13 08:39:04 51°13.818 2°49.124 16.1551 4.321956 34.075496 -3.020363
2011-10-13 08:39:08 51°13.817 2°49.118 16.1555 4.321956 34.074101 -3.020363
2011-10-13 08:39:13 51°13.815 2°49.111 16.1573 4.322889 34.084423 -3.020363
2011-10-13 08:39:19 51°13.813 2°49.102 16.157 4.320504 34.063391 -3.020363
2011-10-13 08:39:24 51°13.812 2°49.094 16.1587 4.319882 34.058601 -3.020363
2011-10-13 08:39:28 51°13.81 2°49.089 16.1586 4.319882 34.058601 -3.020363
2011-10-13 08:39:33 51°13.808 2°49.081 16.1591 4.319778 34.059081 -3.020363
2011-10-13 08:39:38 51°13.806 2°49.074 16.1603 4.319778 34.059778 -3.020363
2011-10-13 08:39:43 51°13.805 2°49.066 16.16 4.319986 34.062304 -3.020363
2011-10-13 08:39:48 51°13.803 2°49.059 16.1594 4.320297 34.065745 -3.020363
2011-10-13 08:39:53 51°13.801 2°49.052 16.159 4.31563 34.023899 -3.020363
2011-10-13 08:39:59 51°13.799 2°49.043 16.1612 4.31563 34.023899 -3.020363
2011-10-13 08:40:04 51°13.797 2°49.035 16.1612 4.319571 34.058646 -3.020363
2011-10-13 08:40:08 51°13.795 2°49.03 16.1606 4.319364 34.057515 -3.020363
2011-10-13 08:40:13 51°13.794 2°49.022 16.1613 4.319986 34.062304 -3.020363
2011-10-13 08:40:19 51°13.791 2°49.013 16.1607 4.319467 34.057732 -3.020363
2011-10-13 08:40:24 51°13.789 2°49.006 16.1612 4.319778 34.060475 -3.020363
2011-10-13 08:40:28 51°13.788 2°49 16.1616 4.319778 34.060475 -3.020363
2011-10-13 08:40:33 51°13.786 2°48.993 16.1616 4.318534 34.050199 -3.020363
2011-10-13 08:40:39 51°13.784 2°48.984 16.1615 4.316771 34.03535 -3.020363
2011-10-13 08:40:44 51°13.782 2°48.976 16.1614 4.316771 34.03535 -3.020363
2011-10-13 08:40:48 51°13.78 2°48.971 16.1613 4.316149 34.029167 -3.020363
2011-10-13 08:40:53 51°13.778 2°48.963 16.1608 4.316356 34.031693 -3.020363
2011-10-13 08:40:59 51°13.776 2°48.954 16.1611 4.316356 34.031693 -3.020363
2011-10-13 08:41:04 51°13.774 2°48.947 16.1614 4.316045 34.028949 -3.020363
2011-10-13 08:41:08 51°13.773 2°48.941 16.162 4.316667 34.035132 -3.020363
2011-10-13 08:41:13 51°13.771 2°48.934 16.1621 4.316875 34.036961 -3.020363
2011-10-13 08:41:18 51°13.769 2°48.927 16.1626 4.315941 34.028732 -3.020363
2011-10-13 08:41:24 51°13.767 2°48.918 16.1634 4.315527 34.025074 -3.020363
2011-10-13 08:41:28 51°13.765 2°48.912 16.1633 4.315527 34.025074 -3.020363
2011-10-13 08:41:33 51°13.764 2°48.904 16.1649 4.314179 34.013884 -3.020363
2011-10-13 08:41:39 51°13.762 2°48.895 16.1653 4.315734 34.028992 -3.020363
2011-10-13 08:41:44 51°13.76 2°48.888 16.166 4.314801 34.020066 -3.020363
2011-10-13 08:41:48 51°13.759 2°48.882 16.1665 4.314801 34.020066 -3.020363
2011-10-13 08:41:53 51°13.758 2°48.874 16.1675 4.315216 34.023724 -3.020363
2011-10-13 08:41:59 51°13.756 2°48.865 16.1682 4.315216 34.023724 -3.020363
2011-10-13 08:42:04 51°13.755 2°48.858 16.1687 4.313971 34.012751 -3.020363
2011-10-13 08:42:08 51°13.754 2°48.852 16.1694 4.31283 34.001997 -3.020363
2011-10-13 08:42:13 51°13.753 2°48.844 16.1703 4.314075 34.012969 -3.020363
2011-10-13 08:42:19 51°13.752 2°48.835 16.1706 4.314386 34.015016 -3.020363
2011-10-13 08:42:24 51°13.751 2°48.828 16.1706 4.315112 34.02072 -3.020363
2011-10-13 08:42:28 51°13.75 2°48.822 16.1703 4.315112 34.02072 -3.020363
2011-10-13 08:42:33 51°13.749 2°48.815 16.1703 4.314075 34.010881 -3.020363
2011-10-13 08:42:39 51°13.749 2°48.806 16.1715 4.316045 34.028253 -3.020363
2011-10-13 08:42:44 51°13.748 2°48.799 16.1717 4.315734 34.024813 -3.020363
2011-10-13 08:42:48 51°13.748 2°48.793 16.1718 4.315838 34.025031 -3.020363
2011-10-13 08:42:53 51°13.747 2°48.786 16.1714 4.315319 34.02046 -3.020363
2011-10-13 08:42:59 51°13.747 2°48.777 16.1729 4.315319 34.02046 -3.020363
2011-10-13 08:43:04 51°13.746 2°48.77 16.1723 4.312727 33.996908 -3.020363
2011-10-13 08:43:08 51°13.746 2°48.765 16.1725 4.315319 34.019764 -3.020363
2011-10-13 08:43:13 51°13.746 2°48.757 16.1728 4.315112 34.017935 -3.020363
2011-10-13 08:43:18 51°13.746 2°48.75 16.1734 4.314904 34.016107 -3.020363
2011-10-13 08:43:24 51°13.745 2°48.742 16.1738 4.315423 34.020678 -3.020363
2011-10-13 08:43:28 51°13.745 2°48.737 16.1746 4.315423 34.020678 -3.020363
2011-10-13 08:43:33 51°13.745 2°48.73 16.1744 4.314075 34.008793 -3.020363
2011-10-13 08:43:38 51°13.745 2°48.723 16.174 4.313764 34.00605 -3.020363
2011-10-13 08:43:44 51°13.745 2°48.714 16.1748 4.312727 33.996212 -3.020363
2011-10-13 08:43:48 51°13.745 2°48.709 16.1748 4.312623 33.995298 -3.020363
2011-10-13 08:43:53 51°13.745 2°48.702 16.1755 4.313245 34.000087 -3.020363
2011-10-13 08:43:58 51°13.745 2°48.695 16.1762 4.313245 34.000087 -3.020363
2011-10-13 08:44:03 51°13.746 2°48.688 16.176 4.312001 33.989117 -3.020363
2011-10-13 08:44:08 51°13.746 2°48.682 16.1757 4.313349 34.001001 -3.020363
2011-10-13 08:44:13 51°13.746 2°48.675 16.1756 4.313038 33.998259 -3.020363
2011-10-13 08:44:19 51°13.747 2°48.667 16.1753 4.313245 34.000087 -3.020363
2011-10-13 08:44:24 51°13.747 2°48.66 16.1765 4.31169 33.98568 -3.020363
2011-10-13 08:44:28 51°13.748 2°48.655 16.1759 4.31169 33.98568 -3.020363
2011-10-13 08:44:33 51°13.748 2°48.648 16.1752 4.312208 33.99025 -3.020363
2011-10-13 08:44:39 51°13.749 2°48.641 16.1746 4.311379 33.982937 -3.020363
2011-10-13 08:44:44 51°13.749 2°48.634 16.1746 4.311482 33.983852 -3.020363
2011-10-13 08:44:48 51°13.75 2°48.63 16.1741 4.310238 33.972883 -3.020363
2011-10-13 08:44:54 51°13.75 2°48.622 16.1744 4.313453 34.00122 -3.020363
2011-10-13 08:44:59 51°13.751 2°48.616 16.174 4.313453 34.00122 -3.020363
2011-10-13 08:45:04 51°13.752 2°48.61 16.1749 4.311171 33.981109 -3.020363
2011-10-13 08:45:08 51°13.752 2°48.605 16.1753 4.309616 33.967399 -3.020363
2011-10-13 08:45:13 51°13.753 2°48.599 16.1753 4.31169 33.986375 -3.020363
2011-10-13 08:45:19 51°13.754 2°48.591 16.1755 4.311586 33.985461 -3.020363
2011-10-13 08:45:24 51°13.755 2°48.585 16.1759 4.311482 33.985242 -3.020363
2011-10-13 08:45:28 51°13.756 2°48.58 16.1765 4.311482 33.985242 -3.020363
2011-10-13 08:45:33 51°13.758 2°48.573 16.1775 4.309616 33.968789 -3.020363
2011-10-13 08:45:39 51°13.761 2°48.564 16.1781 4.312001 33.989813 -3.020363
2011-10-13 08:45:44 51°13.764 2°48.557 16.1775 4.310134 33.974055 -3.020363
2011-10-13 08:45:48 51°13.766 2°48.552 16.1771 4.308475 33.95943 -3.020363
2011-10-13 08:45:53 51°13.77 2°48.545 16.176 4.308579 33.960344 -3.020363
2011-10-13 08:45:59 51°13.774 2°48.537 16.1746 4.308579 33.960344 -3.020363
2011-10-13 08:46:03 51°13.777 2°48.531 16.1748 4.309823 33.970617 -3.020363
2011-10-13 08:46:08 51°13.782 2°48.524 16.1749 4.310549 33.977016 -3.020363
2011-10-13 08:46:14 51°13.786 2°48.517 16.1747 4.31086 33.979062 -3.020363
2011-10-13 08:46:18 51°13.789 2°48.512 16.174 4.307645 33.950033 -3.020363
2011-10-13 08:46:23 51°13.793 2°48.507 16.173 4.310756 33.978148 -3.020363
2011-10-13 08:46:28 51°13.796 2°48.502 16.1711 4.310756 33.978148 -3.020363
2011-10-13 08:46:33 51°13.8 2°48.497 16.1697 4.308475 33.95804 -3.020363
2011-10-13 08:46:39 51°13.803 2°48.492 16.1694 4.309616 33.968789 -3.020363
2011-10-13 08:46:44 51°13.806 2°48.487 16.1674 4.307231 33.947767 -3.020363